Wetterdaten: Mittwoch, 01.02.2023
Datum Zeit Temp. Aussen Temp. o. S. Temp +5cm Feuchte Auss Luftdruck Regen Sonnenschein Regendauer Solar Windben Empfang
01.02.2023 00:00 5,8 C 5,0 C 2,2 C 94 % 1021,1 hPa 0,0 l/m 0 min 0 min 0 W/m 12,9 km/h (3 Bft) 95,65 %
01.02.2023 00:02 5,8 C 5,0 C 2,2 C 94 % 1021,0 hPa 0,0 l/m 0 min 0 min 0 W/m 6,4 km/h (2 Bft) 95,35 %
01.02.2023 00:04 5,8 C 5,0 C 2,2 C 94 % 1020,9 hPa 0,0 l/m 0 min 0 min 0 W/m 12,9 km/h (3 Bft) 93,62 %
01.02.2023 00:07 5,7 C 5,0 C 2,2 C 94 % 1020,9 hPa 0,0 l/m 0 min 0 min 0 W/m 12,9 km/h (3 Bft) 94,37 %
01.02.2023 00:08 5,7 C 5,0 C 2,2 C 94 % 1020,9 hPa 0,0 l/m 0 min 0 min 0 W/m 12,9 km/h (3 Bft) 95,83 %
01.02.2023 00:12 5,7 C 5,0 C 2,2 C 94 % 1020,9 hPa 0,0 l/m 0 min 0 min 0 W/m 12,9 km/h (3 Bft) 91,67 %
01.02.2023 00:14 5,7 C 5,0 C 2,2 C 94 % 1021,0 hPa 0,0 l/m 0 min 0 min 0 W/m 12,9 km/h (3 Bft) 97,83 %
01.02.2023 00:16 5,8 C 5,0 C 2,8 C 94 % 1020,9 hPa 0,0 l/m 0 min 0 min 0 W/m 12,9 km/h (3 Bft) 95,74 %
01.02.2023 00:18 5,8 C 5,6 C 2,8 C 94 % 1020,9 hPa 0,0 l/m 0 min 0 min 0 W/m 12,9 km/h (3 Bft) 97,87 %
01.02.2023 00:20 5,8 C 5,6 C 2,8 C 93 % 1020,9 hPa 0,0 l/m 0 min 0 min 0 W/m 12,9 km/h (3 Bft) 97,87 %
01.02.2023 00:22 5,8 C 5,6 C 2,8 C 93 % 1020,9 hPa 0,0 l/m 0 min 0 min 0 W/m 9,7 km/h (2 Bft) 95,74 %
01.02.2023 00:24 5,8 C 5,6 C 2,8 C 93 % 1020,9 hPa 0,0 l/m 0 min 0 min 0 W/m 9,7 km/h (2 Bft) 100,00 %
01.02.2023 00:26 5,8 C 5,6 C 2,8 C 93 % 1020,8 hPa 0,0 l/m 0 min 0 min 0 W/m 9,7 km/h (2 Bft) 95,65 %
01.02.2023 00:28 5,8 C 5,6 C 2,8 C 93 % 1020,9 hPa 0,0 l/m 0 min 0 min 0 W/m 6,4 km/h (2 Bft) 97,87 %
01.02.2023 00:30 5,8 C 5,6 C 2,8 C 93 % 1020,8 hPa 0,0 l/m 0 min 0 min 0 W/m 19,3 km/h (3 Bft) 100,00 %
01.02.2023 00:32 5,8 C 5,0 C 2,8 C 93 % 1020,8 hPa 0,0 l/m 0 min 0 min 0 W/m 16,1 km/h (3 Bft) 100,00 %
01.02.2023 00:34 5,8 C 5,0 C 2,8 C 93 % 1020,8 hPa 0,0 l/m 0 min 0 min 0 W/m 9,7 km/h (2 Bft) 97,87 %
01.02.2023 00:36 5,8 C 5,0 C 2,8 C 92 % 1020,9 hPa 0,0 l/m 0 min 0 min 0 W/m 12,9 km/h (3 Bft) 97,87 %
01.02.2023 00:38 5,8 C 5,0 C 2,2 C 92 % 1020,9 hPa 0,0 l/m 0 min 0 min 0 W/m 16,1 km/h (3 Bft) 82,61 %
01.02.2023 00:40 5,8 C 5,0 C 2,2 C 92 % 1020,9 hPa 0,0 l/m 0 min 0 min 0 W/m 16,1 km/h (3 Bft) 91,49 %
01.02.2023 00:42 5,8 C 5,0 C 2,2 C 92 % 1020,9 hPa 0,0 l/m 0 min 0 min 0 W/m 16,1 km/h (3 Bft) 72,34 %
01.02.2023 00:44 5,8 C 5,0 C 2,2 C 92 % 1020,9 hPa 0,0 l/m 0 min 0 min 0 W/m 12,9 km/h (3 Bft) 44,68 %
01.02.2023 00:46 5,9 C 5,0 C 2,2 C 92 % 1020,9 hPa 0,0 l/m 0 min 0 min 0 W/m 12,9 km/h (3 Bft) 68,09 %
01.02.2023 00:48 5,9 C 5,0 C 2,2 C 92 % 1020,9 hPa 0,0 l/m 0 min 0 min 0 W/m 12,9 km/h (3 Bft) 95,74 %
01.02.2023 00:50 5,9 C 5,0 C 2,2 C 92 % 1020,9 hPa 0,0 l/m 0 min 0 min 0 W/m 6,4 km/h (2 Bft) 95,74 %
01.02.2023 00:52 5,8 C 5,0 C 2,2 C 92 % 1021,0 hPa 0,0 l/m 0 min 0 min 0 W/m 6,4 km/h (2 Bft) 100,00 %
01.02.2023 00:54 5,9 C 5,0 C 2,8 C 92 % 1021,0 hPa 0,0 l/m 0 min 0 min 0 W/m 9,7 km/h (2 Bft) 97,87 %
01.02.2023 00:56 5,9 C 5,0 C 2,8 C 92 % 1021,0 hPa 0,0 l/m 0 min 0 min 0 W/m 9,7 km/h (2 Bft) 100,00 %
01.02.2023 00:58 5,9 C 5,0 C 2,8 C 92 % 1021,1 hPa 0,0 l/m 0 min 0 min 0 W/m 12,9 km/h (3 Bft) 100,00 %
01.02.2023 01:00 5,9 C 5,0 C 2,8 C 93 % 1021,1 hPa 0,0 l/m 0 min 0 min 0 W/m 9,7 km/h (2 Bft) 100,00 %
01.02.2023 01:02 5,9 C 5,0 C 2,8 C 93 % 1021,1 hPa 0,0 l/m 0 min 0 min 0 W/m 16,1 km/h (3 Bft) 100,00 %
01.02.2023 01:04 5,9 C 5,0 C 2,8 C 93 % 1021,0 hPa 0,0 l/m 0 min 0 min 0 W/m 12,9 km/h (3 Bft) 100,00 %
01.02.2023 01:06 5,9 C 5,0 C 2,2 C 93 % 1021,1 hPa 0,0 l/m 0 min 0 min 0 W/m 6,4 km/h (2 Bft) 98,15 %
01.02.2023 01:08 5,9 C 5,0 C 2,2 C 93 % 1021,1 hPa 0,0 l/m 0 min 0 min 0 W/m 6,4 km/h (2 Bft) 100,00 %
01.02.2023 01:10 5,9 C 5,0 C 2,2 C 93 % 1021,1 hPa 0,0 l/m 0 min 0 min 0 W/m 6,4 km/h (2 Bft) 95,74 %
01.02.2023 01:12 5,9 C 5,0 C 2,2 C 93 % 1021,1 hPa 0,0 l/m 0 min 0 min 0 W/m 12,9 km/h (3 Bft) 95,74 %
01.02.2023 01:14 5,9 C 5,0 C 2,2 C 93 % 1021,0 hPa 0,0 l/m 0 min 0 min 0 W/m 9,7 km/h (2 Bft) 97,83 %
01.02.2023 01:16 5,9 C 5,0 C 2,8 C 93 % 1021,0 hPa 0,0 l/m 0 min 0 min 0 W/m 12,9 km/h (3 Bft) 91,49 %
01.02.2023 01:18 5,9 C 5,6 C 2,8 C 93 % 1021,0 hPa 0,0 l/m 0 min 0 min 0 W/m 16,1 km/h (3 Bft) 95,74 %
01.02.2023 01:20 5,9 C 5,0 C 2,8 C 93 % 1021,0 hPa 0,0 l/m 0 min 0 min 0 W/m 12,9 km/h (3 Bft) 89,36 %
01.02.2023 01:22 5,9 C 5,6 C 2,8 C 93 % 1020,9 hPa 0,0 l/m 0 min 0 min 0 W/m 22,5 km/h (4 Bft) 93,62 %
01.02.2023 01:24 6,0 C 5,6 C 2,8 C 93 % 1020,9 hPa 0,0 l/m 0 min 0 min 0 W/m 16,1 km/h (3 Bft) 91,49 %
01.02.2023 01:26 6,0 C 5,6 C 2,8 C 93 % 1020,8 hPa 0,0 l/m 0 min 0 min 0 W/m 16,1 km/h (3 Bft) 80,43 %
01.02.2023 01:28 6,0 C 5,6 C 2,8 C 93 % 1020,9 hPa 0,0 l/m 0 min 0 min 0 W/m 16,1 km/h (3 Bft) 95,74 %
01.02.2023 01:30 6,0 C 5,6 C 2,8 C 93 % 1020,8 hPa 0,0 l/m 0 min 0 min 0 W/m 12,9 km/h (3 Bft) 91,49 %
01.02.2023 01:32 6,0 C 5,6 C 2,8 C 94 % 1020,8 hPa 0,0 l/m 0 min 0 min 0 W/m 16,1 km/h (3 Bft) 91,49 %
01.02.2023 01:34 6,0 C 5,6 C 2,8 C 94 % 1020,8 hPa 0,0 l/m 0 min 0 min 0 W/m 12,9 km/h (3 Bft) 93,62 %
01.02.2023 01:36 5,9 C 5,6 C 2,8 C 94 % 1020,9 hPa 0,0 l/m 0 min 0 min 0 W/m 12,9 km/h (3 Bft) 95,74 %
01.02.2023 01:38 5,9 C 5,0 C 2,8 C 94 % 1020,8 hPa 0,0 l/m 0 min 0 min 0 W/m 16,1 km/h (3 Bft) 95,74 %
01.02.2023 01:40 5,9 C 5,0 C 2,8 C 94 % 1020,8 hPa 0,0 l/m 0 min 0 min 0 W/m 9,7 km/h (2 Bft) 95,65 %
01.02.2023 01:42 5,9 C 5,0 C 2,8 C 94 % 1020,8 hPa 0,0 l/m 0 min 0 min 0 W/m 12,9 km/h (3 Bft) 93,62 %
01.02.2023 01:44 5,9 C 5,0 C 2,2 C 93 % 1020,7 hPa 0,0 l/m 0 min 0 min 0 W/m 6,4 km/h (2 Bft) 95,74 %
01.02.2023 01:46 5,8 C 5,0 C 2,2 C 93 % 1020,5 hPa 0,0 l/m 0 min 0 min 0 W/m 6,4 km/h (2 Bft) 95,74 %
01.02.2023 01:48 5,8 C 5,0 C 2,2 C 93 % 1020,5 hPa 0,0 l/m 0 min 0 min 0 W/m 12,9 km/h (3 Bft) 95,74 %
01.02.2023 01:50 5,7 C 5,0 C 2,2 C 93 % 1020,5 hPa 0,0 l/m 0 min 0 min 0 W/m 12,9 km/h (3 Bft) 95,74 %
01.02.2023 01:52 5,7 C 5,0 C 2,2 C 93 % 1020,4 hPa 0,0 l/m 0 min 0 min 0 W/m 12,9 km/h (3 Bft) 93,62 %
01.02.2023 01:54 5,6 C 5,0 C 2,2 C 93 % 1020,2 hPa 0,0 l/m 0 min 0 min 0 W/m 6,4 km/h (2 Bft) 95,65 %
01.02.2023 01:56 5,6 C 5,0 C 2,2 C 93 % 1020,2 hPa 0,0 l/m 0 min 0 min 0 W/m 16,1 km/h (3 Bft) 95,74 %
01.02.2023 01:58 5,6 C 5,0 C 2,2 C 93 % 1020,4 hPa 0,0 l/m 0 min 0 min 0 W/m 16,1 km/h (3 Bft) 95,74 %
01.02.2023 02:00 5,6 C 5,0 C 2,2 C 93 % 1020,5 hPa 0,0 l/m 0 min 0 min 0 W/m 12,9 km/h (3 Bft) 93,62 %
01.02.2023 02:02 5,5 C 5,0 C 2,2 C 92 % 1020,5 hPa 0,0 l/m 0 min 0 min 0 W/m 9,7 km/h (2 Bft) 95,74 %
01.02.2023 02:04 5,5 C 5,0 C 2,2 C 92 % 1020,4 hPa 0,0 l/m 0 min 0 min 0 W/m 12,9 km/h (3 Bft) 95,74 %
01.02.2023 02:06 5,5 C 5,0 C 2,2 C 92 % 1020,5 hPa 0,0 l/m 0 min 0 min 0 W/m 6,4 km/h (2 Bft) 98,08 %
01.02.2023 02:08 5,4 C 5,0 C 2,2 C 92 % 1020,5 hPa 0,0 l/m 0 min 0 min 0 W/m 6,4 km/h (2 Bft) 74,29 %
01.02.2023 02:10 5,4 C 5,0 C 2,2 C 92 % 1020,6 hPa 0,0 l/m 0 min 0 min 0 W/m 12,9 km/h (3 Bft) 97,87 %
01.02.2023 02:12 5,4 C 5,0 C 2,2 C 92 % 1020,7 hPa 0,0 l/m 0 min 0 min 0 W/m 6,4 km/h (2 Bft) 95,74 %
01.02.2023 02:14 5,4 C 5,0 C 2,2 C 92 % 1020,7 hPa 0,0 l/m 0 min 0 min 0 W/m 16,1 km/h (3 Bft) 95,65 %
01.02.2023 02:16 5,4 C 5,0 C 2,2 C 92 % 1020,7 hPa 0,0 l/m 0 min 0 min 0 W/m 6,4 km/h (2 Bft) 97,87 %
01.02.2023 02:18 5,4 C 5,0 C 2,2 C 92 % 1020,8 hPa 0,0 l/m 0 min 0 min 0 W/m 12,9 km/h (3 Bft) 100,00 %
01.02.2023 02:20 5,4 C 5,0 C 2,2 C 91 % 1020,8 hPa 0,0 l/m 0 min 0 min 0 W/m 12,9 km/h (3 Bft) 87,23 %
01.02.2023 02:22 5,3 C 4,4 C 2,2 C 91 % 1020,8 hPa 0,0 l/m 0 min 0 min 0 W/m 12,9 km/h (3 Bft) 87,23 %
01.02.2023 02:24 5,3 C 4,4 C 2,2 C 91 % 1020,8 hPa 0,0 l/m 0 min 0 min 0 W/m 16,1 km/h (3 Bft) 89,36 %
01.02.2023 02:26 5,3 C 4,4 C 2,2 C 91 % 1020,8 hPa 0,0 l/m 0 min 0 min 0 W/m 6,4 km/h (2 Bft) 84,78 %
01.02.2023 02:28 5,3 C 4,4 C 2,2 C 91 % 1020,9 hPa 0,0 l/m 0 min 0 min 0 W/m 16,1 km/h (3 Bft) 85,11 %
01.02.2023 02:30 5,3 C 4,4 C 1,7 C 90 % 1020,8 hPa 0,0 l/m 0 min 0 min 0 W/m 12,9 km/h (3 Bft) 97,87 %
01.02.2023 02:32 5,3 C 4,4 C 1,7 C 90 % 1020,8 hPa 0,0 l/m 0 min 0 min 0 W/m 12,9 km/h (3 Bft) 95,74 %
01.02.2023 02:34 5,2 C 4,4 C 1,7 C 90 % 1020,8 hPa 0,0 l/m 0 min 0 min 0 W/m 12,9 km/h (3 Bft) 91,49 %
01.02.2023 02:36 5,2 C 4,4 C 1,7 C 90 % 1020,9 hPa 0,0 l/m 0 min 0 min 0 W/m 12,9 km/h (3 Bft) 93,62 %
01.02.2023 02:38 5,2 C 4,4 C 1,7 C 90 % 1020,9 hPa 0,0 l/m 0 min 0 min 0 W/m 12,9 km/h (3 Bft) 97,87 %
01.02.2023 02:40 5,2 C 4,4 C 1,7 C 90 % 1020,8 hPa 0,0 l/m 0 min 0 min 0 W/m 19,3 km/h (3 Bft) 97,87 %
01.02.2023 02:42 5,2 C 4,4 C 1,7 C 90 % 1020,9 hPa 0,0 l/m 0 min 0 min 0 W/m 12,9 km/h (3 Bft) 86,96 %
01.02.2023 02:44 5,2 C 4,4 C 1,7 C 89 % 1020,8 hPa 0,0 l/m 0 min 0 min 0 W/m 12,9 km/h (3 Bft) 51,06 %
01.02.2023 02:46 5,1 C 4,4 C 1,7 C 89 % 1020,8 hPa 0,0 l/m 0 min 0 min 0 W/m 12,9 km/h (3 Bft) 89,36 %
01.02.2023 02:48 5,1 C 4,4 C 1,7 C 89 % 1020,9 hPa 0,0 l/m 0 min 0 min 0 W/m 12,9 km/h (3 Bft) 51,06 %
01.02.2023 02:50 5,1 C 4,4 C 1,7 C 89 % 1020,7 hPa 0,0 l/m 0 min 0 min 0 W/m 12,9 km/h (3 Bft) 80,85 %
01.02.2023 02:52 5,1 C 4,4 C 1,7 C 89 % 1020,6 hPa 0,0 l/m 0 min 0 min 0 W/m 16,1 km/h (3 Bft) 82,98 %
01.02.2023 02:54 5,1 C 4,4 C 1,7 C 89 % 1020,5 hPa 0,0 l/m 0 min 0 min 0 W/m 9,7 km/h (2 Bft) 93,48 %
01.02.2023 02:56 5,1 C 4,4 C 1,7 C 89 % 1020,6 hPa 0,0 l/m 0 min 0 min 0 W/m 16,1 km/h (3 Bft) 91,49 %
01.02.2023 02:58 5,1 C 4,4 C 1,7 C 89 % 1020,5 hPa 0,0 l/m 0 min 0 min 0 W/m 12,9 km/h (3 Bft) 91,49 %
01.02.2023 03:00 5,1 C 4,4 C 1,7 C 89 % 1020,6 hPa 0,0 l/m 0 min 0 min 0 W/m 12,9 km/h (3 Bft) 85,11 %
01.02.2023 03:02 5,1 C 4,4 C 1,7 C 89 % 1020,5 hPa 0,0 l/m 0 min 0 min 0 W/m 9,7 km/h (2 Bft) 95,74 %
01.02.2023 03:04 5,1 C 4,4 C 1,7 C 89 % 1020,5 hPa 0,0 l/m 0 min 0 min 0 W/m 9,7 km/h (2 Bft) 95,74 %
01.02.2023 03:06 5,0 C 4,4 C 1,7 C 89 % 1020,5 hPa 0,0 l/m 0 min 0 min 0 W/m 16,1 km/h (3 Bft) 79,31 %
01.02.2023 03:08 5,0 C 4,4 C 1,7 C 89 % 1020,4 hPa 0,0 l/m 0 min 0 min 0 W/m 16,1 km/h (3 Bft) 65,71 %
01.02.2023 03:10 5,0 C 4,4 C 1,7 C 89 % 1020,6 hPa 0,0 l/m 0 min 0 min 0 W/m 16,1 km/h (3 Bft) 74,47 %
01.02.2023 03:12 5,0 C 4,4 C 1,7 C 89 % 1020,5 hPa 0,0 l/m 0 min 0 min 0 W/m 12,9 km/h (3 Bft) 89,36 %
01.02.2023 03:14 5,0 C 4,4 C 1,7 C 88 % 1020,4 hPa 0,0 l/m 0 min 0 min 0 W/m 9,7 km/h (2 Bft) 93,62 %
01.02.2023 03:16 5,0 C 4,4 C 1,7 C 88 % 1020,4 hPa 0,0 l/m 0 min 0 min 0 W/m 6,4 km/h (2 Bft) 80,85 %
01.02.2023 03:18 5,0 C 4,4 C 1,7 C 88 % 1020,4 hPa 0,0 l/m 0 min 0 min 0 W/m 12,9 km/h (3 Bft) 80,85 %
01.02.2023 03:20 5,0 C 4,4 C 1,7 C 88 % 1020,5 hPa 0,0 l/m 0 min 0 min 0 W/m 16,1 km/h (3 Bft) 95,74 %
01.02.2023 03:22 4,9 C 4,4 C 1,7 C 88 % 1020,4 hPa 0,0 l/m 0 min 0 min 0 W/m 16,1 km/h (3 Bft) 97,83 %
01.02.2023 03:24 4,9 C 4,4 C 1,7 C 88 % 1020,4 hPa 0,0 l/m 0 min 0 min 0 W/m 19,3 km/h (3 Bft) 93,62 %
01.02.2023 03:26 4,9 C 3,9 C 1,7 C 88 % 1020,4 hPa 0,0 l/m 0 min 0 min 0 W/m 12,9 km/h (3 Bft) 82,98 %
01.02.2023 03:28 4,9 C 4,4 C 1,7 C 88 % 1020,6 hPa 0,0 l/m 0 min 0 min 0 W/m 22,5 km/h (4 Bft) 93,62 %
01.02.2023 03:30 4,9 C 4,4 C 1,7 C 88 % 1020,4 hPa 0,0 l/m 0 min 0 min 0 W/m 12,9 km/h (3 Bft) 97,87 %
01.02.2023 03:32 4,9 C 3,9 C 1,7 C 88 % 1020,4 hPa 0,0 l/m 0 min 0 min 0 W/m 16,1 km/h (3 Bft) 87,23 %
01.02.2023 03:34 4,9 C 3,9 C 1,7 C 88 % 1020,5 hPa 0,0 l/m 0 min 0 min 0 W/m 19,3 km/h (3 Bft) 93,48 %
01.02.2023 03:36 4,8 C 3,9 C 1,1 C 88 % 1020,4 hPa 0,0 l/m 0 min 0 min 0 W/m 6,4 km/h (2 Bft) 93,62 %
01.02.2023 03:38 4,8 C 3,9 C 1,1 C 88 % 1020,4 hPa 0,0 l/m 0 min 0 min 0 W/m 12,9 km/h (3 Bft) 97,87 %
01.02.2023 03:40 4,8 C 3,9 C 1,1 C 88 % 1020,4 hPa 0,0 l/m 0 min 0 min 0 W/m 16,1 km/h (3 Bft) 95,74 %
01.02.2023 03:42 4,8 C 3,9 C 1,1 C 88 % 1020,3 hPa 0,0 l/m 0 min 0 min 0 W/m 16,1 km/h (3 Bft) 95,74 %
01.02.2023 03:44 4,8 C 3,9 C 1,1 C 88 % 1020,2 hPa 0,0 l/m 0 min 0 min 0 W/m 16,1 km/h (3 Bft) 82,98 %
01.02.2023 03:46 4,8 C 3,9 C 1,1 C 88 % 1020,3 hPa 0,0 l/m 0 min 0 min 0 W/m 16,1 km/h (3 Bft) 97,87 %
01.02.2023 03:48 4,8 C 3,9 C 1,1 C 88 % 1020,2 hPa 0,0 l/m 0 min 0 min 0 W/m 12,9 km/h (3 Bft) 97,83 %
01.02.2023 03:50 4,8 C 3,9 C 1,1 C 89 % 1020,1 hPa 0,0 l/m 0 min 0 min 0 W/m 16,1 km/h (3 Bft) 95,74 %
01.02.2023 03:52 4,8 C 3,9 C 1,1 C 89 % 1020,1 hPa 0,0 l/m 0 min 0 min 0 W/m 12,9 km/h (3 Bft) 93,62 %
01.02.2023 03:54 4,8 C 3,9 C 1,1 C 89 % 1020,1 hPa 0,0 l/m 0 min 0 min 0 W/m 12,9 km/h (3 Bft) 97,87 %
01.02.2023 03:56 4,7 C 3,9 C 1,1 C 89 % 1020,2 hPa 0,0 l/m 0 min 0 min 0 W/m 12,9 km/h (3 Bft) 95,74 %
01.02.2023 03:58 4,7 C 3,9 C 1,1 C 89 % 1020,1 hPa 0,0 l/m 0 min 0 min 0 W/m 16,1 km/h (3 Bft) 100,00 %
01.02.2023 04:00 4,7 C 3,9 C 1,1 C 89 % 1020,2 hPa 0,0 l/m 0 min 0 min 0 W/m 19,3 km/h (3 Bft) 97,87 %
01.02.2023 04:02 4,8 C 3,9 C 1,1 C 89 % 1020,2 hPa 0,0 l/m 0 min 0 min 0 W/m 12,9 km/h (3 Bft) 100,00 %
01.02.2023 04:04 4,8 C 3,9 C 1,1 C 89 % 1020,2 hPa 0,0 l/m 0 min 0 min 0 W/m 16,1 km/h (3 Bft) 95,74 %
01.02.2023 04:06 4,8 C 3,9 C 1,1 C 89 % 1020,1 hPa 0,0 l/m 0 min 0 min 0 W/m 16,1 km/h (3 Bft) 96,61 %
01.02.2023 04:08 4,8 C 3,9 C 1,1 C 89 % 1020,2 hPa 0,0 l/m 0 min 0 min 0 W/m 22,5 km/h (4 Bft) 100,00 %
01.02.2023 04:10 4,8 C 3,9 C 1,1 C 89 % 1020,1 hPa 0,0 l/m 0 min 0 min 0 W/m 16,1 km/h (3 Bft) 93,62 %
01.02.2023 04:12 4,8 C 3,9 C 1,1 C 89 % 1020,0 hPa 0,0 l/m 0 min 0 min 0 W/m 12,9 km/h (3 Bft) 97,87 %
01.02.2023 04:14 4,8 C 3,9 C 1,1 C 89 % 1020,1 hPa 0,0 l/m 0 min 0 min 0 W/m 32,2 km/h (5 Bft) 93,62 %
01.02.2023 04:16 4,8 C 3,9 C 1,1 C 90 % 1020,1 hPa 0,0 l/m 0 min 0 min 0 W/m 16,1 km/h (3 Bft) 93,48 %
01.02.2023 04:18 4,8 C 4,4 C 1,7 C 90 % 1020,0 hPa 0,0 l/m 0 min 0 min 0 W/m 12,9 km/h (3 Bft) 82,98 %
01.02.2023 04:20 4,8 C 4,4 C 1,7 C 89 % 1020,0 hPa 0,0 l/m 0 min 0 min 0 W/m 12,9 km/h (3 Bft) 68,09 %
01.02.2023 04:22 4,9 C 4,4 C 1,7 C 90 % 1019,9 hPa 0,0 l/m 0 min 0 min 0 W/m 22,5 km/h (4 Bft) 78,72 %
01.02.2023 04:24 4,9 C 4,4 C 1,7 C 90 % 1019,9 hPa 0,0 l/m 0 min 0 min 0 W/m 12,9 km/h (3 Bft) 72,34 %
01.02.2023 04:26 4,9 C 4,4 C 1,7 C 90 % 1020,0 hPa 0,0 l/m 0 min 0 min 0 W/m 19,3 km/h (3 Bft) 82,98 %
01.02.2023 04:28 5,0 C 4,4 C 1,7 C 90 % 1019,9 hPa 0,0 l/m 0 min 0 min 0 W/m 19,3 km/h (3 Bft) 76,09 %
01.02.2023 04:30 5,0 C 4,4 C 1,7 C 90 % 1019,9 hPa 0,0 l/m 0 min 0 min 0 W/m 16,1 km/h (3 Bft) 85,11 %
01.02.2023 04:32 5,1 C 4,4 C 1,7 C 90 % 1019,9 hPa 0,0 l/m 0 min 0 min 0 W/m 25,7 km/h (4 Bft) 97,87 %
01.02.2023 04:34 5,1 C 4,4 C 1,7 C 90 % 1020,0 hPa 0,0 l/m 0 min 0 min 0 W/m 35,4 km/h (5 Bft) 93,62 %
01.02.2023 04:36 5,1 C 4,4 C 1,7 C 89 % 1019,9 hPa 0,0 l/m 0 min 0 min 0 W/m 22,5 km/h (4 Bft) 97,87 %
01.02.2023 04:38 5,2 C 4,4 C 1,7 C 89 % 1019,9 hPa 0,0 l/m 0 min 0 min 0 W/m 16,1 km/h (3 Bft) 89,36 %
01.02.2023 04:40 5,2 C 4,4 C 1,7 C 89 % 1019,8 hPa 0,0 l/m 0 min 0 min 0 W/m 12,9 km/h (3 Bft) 91,49 %
01.02.2023 04:42 5,2 C 4,4 C 1,7 C 89 % 1019,7 hPa 0,0 l/m 0 min 0 min 0 W/m 19,3 km/h (3 Bft) 65,22 %
01.02.2023 04:44 5,2 C 4,4 C 1,7 C 89 % 1019,8 hPa 0,0 l/m 0 min 0 min 0 W/m 16,1 km/h (3 Bft) 97,87 %
01.02.2023 04:46 5,2 C 4,4 C 1,7 C 89 % 1019,8 hPa 0,0 l/m 0 min 0 min 0 W/m 12,9 km/h (3 Bft) 100,00 %
01.02.2023 04:48 5,2 C 4,4 C 1,7 C 89 % 1019,8 hPa 0,0 l/m 0 min 0 min 0 W/m 12,9 km/h (3 Bft) 88,68 %
01.02.2023 04:50 5,2 C 4,4 C 1,7 C 89 % 1019,8 hPa 0,0 l/m 0 min 0 min 0 W/m 22,5 km/h (4 Bft) 87,23 %
01.02.2023 04:52 5,2 C 4,4 C 1,7 C 89 % 1019,8 hPa 0,0 l/m 0 min 0 min 0 W/m 12,9 km/h (3 Bft) 100,00 %
01.02.2023 04:54 5,2 C 4,4 C 1,7 C 89 % 1019,9 hPa 0,0 l/m 0 min 0 min 0 W/m 12,9 km/h (3 Bft) 87,23 %
01.02.2023 04:56 5,2 C 4,4 C 1,7 C 89 % 1019,8 hPa 0,0 l/m 0 min 0 min 0 W/m 19,3 km/h (3 Bft) 68,09 %
01.02.2023 04:58 5,2 C 4,4 C 1,7 C 89 % 1019,8 hPa 0,0 l/m 0 min 0 min 0 W/m 19,3 km/h (3 Bft) 65,96 %
01.02.2023 05:00 5,2 C 4,4 C 1,7 C 89 % 1019,7 hPa 0,0 l/m 0 min 0 min 0 W/m 19,3 km/h (3 Bft) 89,13 %
01.02.2023 05:02 5,3 C 4,4 C 1,7 C 89 % 1019,6 hPa 0,0 l/m 0 min 0 min 0 W/m 16,1 km/h (3 Bft) 80,85 %
01.02.2023 05:04 5,3 C 4,4 C 1,7 C 89 % 1019,8 hPa 0,0 l/m 0 min 0 min 0 W/m 16,1 km/h (3 Bft) 65,96 %
01.02.2023 05:06 5,3 C 4,4 C 1,7 C 89 % 1019,8 hPa 0,0 l/m 0 min 0 min 0 W/m 19,3 km/h (3 Bft) 57,45 %
01.02.2023 05:08 5,3 C 4,4 C 1,7 C 89 % 1019,8 hPa 0,0 l/m 0 min 0 min 0 W/m 19,3 km/h (3 Bft) 72,34 %
01.02.2023 05:10 5,3 C 4,4 C 1,7 C 89 % 1019,8 hPa 0,0 l/m 0 min 0 min 0 W/m 22,5 km/h (4 Bft) 93,62 %
01.02.2023 05:12 5,3 C 4,4 C 1,7 C 89 % 1019,7 hPa 0,0 l/m 0 min 0 min 0 W/m 16,1 km/h (3 Bft) 91,49 %
01.02.2023 05:14 5,3 C 4,4 C 1,7 C 89 % 1019,6 hPa 0,0 l/m 0 min 0 min 0 W/m 12,9 km/h (3 Bft) 82,98 %
01.02.2023 05:16 5,3 C 4,4 C 1,7 C 89 % 1019,5 hPa 0,0 l/m 0 min 0 min 0 W/m 16,1 km/h (3 Bft) 71,74 %
01.02.2023 05:18 5,3 C 4,4 C 1,7 C 89 % 1019,5 hPa 0,0 l/m 0 min 0 min 0 W/m 16,1 km/h (3 Bft) 25,53 %
01.02.2023 05:20 5,3 C 4,4 C 1,7 C 89 % 1019,5 hPa 0,0 l/m 0 min 0 min 0 W/m 19,3 km/h (3 Bft) 61,70 %
01.02.2023 05:22 5,2 C 4,4 C 1,7 C 89 % 1019,4 hPa 0,0 l/m 0 min 0 min 0 W/m 25,7 km/h (4 Bft) 68,09 %
01.02.2023 05:24 5,2 C 4,4 C 1,7 C 89 % 1019,4 hPa 0,0 l/m 0 min 0 min 0 W/m 22,5 km/h (4 Bft) 76,60 %
01.02.2023 05:26 5,2 C 4,4 C 1,7 C 89 % 1019,6 hPa 0,0 l/m 0 min 0 min 0 W/m 25,7 km/h (4 Bft) 89,36 %
01.02.2023 05:28 5,2 C 4,4 C 1,7 C 89 % 1019,4 hPa 0,0 l/m 0 min 0 min 0 W/m 16,1 km/h (3 Bft) 91,30 %
01.02.2023 05:30 5,2 C 4,4 C 1,7 C 89 % 1019,2 hPa 0,0 l/m 0 min 0 min 0 W/m 25,7 km/h (4 Bft) 95,74 %
01.02.2023 05:32 5,2 C 4,4 C 1,7 C 89 % 1019,5 hPa 0,0 l/m 0 min 0 min 0 W/m 45,1 km/h (6 Bft) 76,60 %
01.02.2023 05:34 5,1 C 4,4 C 1,7 C 89 % 1019,4 hPa 0,0 l/m 0 min 0 min 0 W/m 16,1 km/h (3 Bft) 48,94 %
01.02.2023 05:36 5,1 C 4,4 C 1,7 C 89 % 1019,5 hPa 0,0 l/m 0 min 0 min 0 W/m 22,5 km/h (4 Bft) 65,96 %
01.02.2023 05:38 5,1 C 4,4 C 1,7 C 89 % 1019,6 hPa 0,0 l/m 0 min 0 min 0 W/m 19,3 km/h (3 Bft) 93,62 %
01.02.2023 05:40 5,1 C 4,4 C 1,7 C 89 % 1019,6 hPa 0,0 l/m 0 min 0 min 0 W/m 19,3 km/h (3 Bft) 89,13 %
01.02.2023 05:42 5,1 C 4,4 C 1,7 C 89 % 1019,7 hPa 0,0 l/m 0 min 0 min 0 W/m 25,7 km/h (4 Bft) 91,49 %
01.02.2023 05:44 5,1 C 4,4 C 1,7 C 89 % 1019,6 hPa 0,0 l/m 0 min 0 min 0 W/m 19,3 km/h (3 Bft) 91,49 %
01.02.2023 05:46 5,1 C 4,4 C 1,7 C 89 % 1019,5 hPa 0,0 l/m 0 min 0 min 0 W/m 19,3 km/h (3 Bft) 95,74 %
01.02.2023 05:48 5,1 C 4,4 C 1,7 C 89 % 1019,5 hPa 0,0 l/m 0 min 0 min 0 W/m 16,1 km/h (3 Bft) 91,49 %
01.02.2023 05:50 5,1 C 4,4 C 1,7 C 89 % 1019,6 hPa 0,0 l/m 0 min 0 min 0 W/m 22,5 km/h (4 Bft) 78,72 %
01.02.2023 05:52 5,0 C 4,4 C 1,7 C 89 % 1019,6 hPa 0,0 l/m 0 min 0 min 0 W/m 22,5 km/h (4 Bft) 80,85 %
01.02.2023 05:54 5,0 C 4,4 C 1,7 C 89 % 1019,6 hPa 0,0 l/m 0 min 0 min 0 W/m 12,9 km/h (3 Bft) 89,13 %
01.02.2023 05:56 5,0 C 4,4 C 1,7 C 89 % 1019,7 hPa 0,0 l/m 0 min 0 min 0 W/m 22,5 km/h (4 Bft) 97,87 %
01.02.2023 05:58 5,0 C 4,4 C 1,1 C 89 % 1019,8 hPa 0,0 l/m 0 min 0 min 0 W/m 16,1 km/h (3 Bft) 95,74 %
01.02.2023 06:00 5,0 C 4,4 C 1,7 C 89 % 1019,8 hPa 0,0 l/m 0 min 0 min 0 W/m 19,3 km/h (3 Bft) 95,74 %
01.02.2023 06:02 5,0 C 4,4 C 1,7 C 89 % 1019,7 hPa 0,0 l/m 0 min 0 min 0 W/m 19,3 km/h (3 Bft) 97,87 %
01.02.2023 06:04 5,0 C 4,4 C 1,7 C 89 % 1019,7 hPa 0,0 l/m 0 min 0 min 0 W/m 16,1 km/h (3 Bft) 93,62 %
01.02.2023 06:07 5,0 C 4,4 C 1,1 C 89 % 1019,7 hPa 0,0 l/m 0 min 0 min 0 W/m 16,1 km/h (3 Bft) 93,33 %
01.02.2023 06:08 5,0 C 4,4 C 1,1 C 89 % 1019,7 hPa 0,0 l/m 0 min 0 min 0 W/m 19,3 km/h (3 Bft) 75,00 %
01.02.2023 06:10 5,0 C 4,4 C 1,1 C 89 % 1019,6 hPa 0,0 l/m 0 min 0 min 0 W/m 19,3 km/h (3 Bft) 97,83 %
01.02.2023 06:12 4,9 C 4,4 C 1,1 C 89 % 1019,6 hPa 0,0 l/m 0 min 0 min 0 W/m 25,7 km/h (4 Bft) 87,23 %
01.02.2023 06:14 4,9 C 4,4 C 1,1 C 89 % 1019,6 hPa 0,0 l/m 0 min 0 min 0 W/m 16,1 km/h (3 Bft) 68,09 %
01.02.2023 06:16 4,9 C 3,9 C 1,1 C 89 % 1019,7 hPa 0,0 l/m 0 min 0 min 0 W/m 16,1 km/h (3 Bft) 89,36 %
01.02.2023 06:18 4,9 C 3,9 C 1,1 C 89 % 1019,8 hPa 0,0 l/m 0 min 0 min 0 W/m 19,3 km/h (3 Bft) 87,23 %
01.02.2023 06:20 4,9 C 3,9 C 1,1 C 89 % 1019,7 hPa 0,0 l/m 0 min 0 min 0 W/m 19,3 km/h (3 Bft) 97,87 %
01.02.2023 06:22 4,9 C 3,9 C 1,1 C 89 % 1019,8 hPa 0,0 l/m 0 min 0 min 0 W/m 19,3 km/h (3 Bft) 97,87 %
01.02.2023 06:24 4,8 C 3,9 C 1,1 C 89 % 1019,6 hPa 0,0 l/m 0 min 0 min 0 W/m 19,3 km/h (3 Bft) 93,48 %
01.02.2023 06:26 4,9 C 4,4 C 1,1 C 89 % 1019,6 hPa 0,0 l/m 0 min 0 min 0 W/m 22,5 km/h (4 Bft) 95,74 %
01.02.2023 06:28 4,9 C 4,4 C 1,1 C 89 % 1019,6 hPa 0,0 l/m 0 min 0 min 0 W/m 25,7 km/h (4 Bft) 97,87 %
01.02.2023 06:30 4,9 C 4,4 C 1,1 C 89 % 1019,7 hPa 0,0 l/m 0 min 0 min 0 W/m 22,5 km/h (4 Bft) 89,36 %
01.02.2023 06:32 4,9 C 4,4 C 1,1 C 89 % 1019,7 hPa 0,0 l/m 0 min 0 min 0 W/m 22,5 km/h (4 Bft) 93,62 %
01.02.2023 06:34 5,0 C 4,4 C 1,1 C 89 % 1019,8 hPa 0,0 l/m 0 min 0 min 0 W/m 22,5 km/h (4 Bft) 95,74 %
01.02.2023 06:36 4,9 C 4,4 C 1,1 C 89 % 1019,7 hPa 0,0 l/m 0 min 0 min 0 W/m 16,1 km/h (3 Bft) 89,36 %
01.02.2023 06:38 4,9 C 3,9 C 1,1 C 88 % 1019,7 hPa 0,0 l/m 0 min 0 min 0 W/m 19,3 km/h (3 Bft) 95,65 %
01.02.2023 06:40 4,9 C 3,9 C 1,1 C 89 % 1019,7 hPa 0,0 l/m 0 min 0 min 0 W/m 12,9 km/h (3 Bft) 95,74 %
01.02.2023 06:42 4,9 C 3,9 C 1,1 C 89 % 1019,6 hPa 0,0 l/m 0 min 0 min 0 W/m 25,7 km/h (4 Bft) 93,62 %
01.02.2023 06:44 4,8 C 3,9 C 1,1 C 89 % 1019,7 hPa 0,0 l/m 0 min 0 min 0 W/m 16,1 km/h (3 Bft) 97,87 %
01.02.2023 06:46 4,8 C 3,9 C 1,1 C 89 % 1019,6 hPa 0,0 l/m 0 min 0 min 0 W/m 16,1 km/h (3 Bft) 97,87 %
01.02.2023 06:48 4,8 C 3,9 C 1,1 C 89 % 1019,6 hPa 0,0 l/m 0 min 0 min 0 W/m 29,0 km/h (5 Bft) 95,74 %
01.02.2023 06:50 4,8 C 3,9 C 1,1 C 89 % 1019,6 hPa 0,0 l/m 0 min 0 min 0 W/m 19,3 km/h (3 Bft) 95,74 %
01.02.2023 06:52 4,8 C 3,9 C 1,1 C 89 % 1019,7 hPa 0,0 l/m 0 min 0 min 0 W/m 22,5 km/h (4 Bft) 68,09 %
01.02.2023 06:54 4,8 C 3,9 C 1,1 C 89 % 1019,7 hPa 0,0 l/m 0 min 0 min 0 W/m 12,9 km/h (3 Bft) 86,05 %
01.02.2023 06:56 4,8 C 3,9 C 1,1 C 89 % 1019,7 hPa 0,0 l/m 0 min 0 min 0 W/m 19,3 km/h (3 Bft) 95,74 %
01.02.2023 06:58 4,8 C 3,9 C 1,1 C 89 % 1019,6 hPa 0,0 l/m 0 min 0 min 0 W/m 19,3 km/h (3 Bft) 95,74 %
01.02.2023 07:00 4,8 C 3,9 C 1,1 C 89 % 1019,4 hPa 0,0 l/m 0 min 0 min 0 W/m 19,3 km/h (3 Bft) 97,87 %
01.02.2023 07:02 4,7 C 3,9 C 1,1 C 89 % 1019,4 hPa 0,0 l/m 0 min 0 min 0 W/m 19,3 km/h (3 Bft) 93,62 %
01.02.2023 07:04 4,7 C 3,9 C 1,1 C 89 % 1019,5 hPa 0,0 l/m 0 min 0 min 0 W/m 12,9 km/h (3 Bft) 97,87 %
01.02.2023 07:06 4,7 C 3,9 C 1,1 C 89 % 1019,5 hPa 0,0 l/m 0 min 0 min 0 W/m 19,3 km/h (3 Bft) 93,48 %
01.02.2023 07:08 4,7 C 3,9 C 1,1 C 89 % 1019,5 hPa 0,0 l/m 0 min 0 min 0 W/m 25,7 km/h (4 Bft) 91,49 %
01.02.2023 07:10 4,7 C 3,9 C 1,1 C 89 % 1019,5 hPa 0,0 l/m 0 min 0 min 0 W/m 19,3 km/h (3 Bft) 95,74 %
01.02.2023 07:12 4,8 C 3,9 C 1,1 C 89 % 1019,5 hPa 0,0 l/m 0 min 0 min 0 W/m 16,1 km/h (3 Bft) 97,87 %
01.02.2023 07:14 4,8 C 3,9 C 1,1 C 89 % 1019,5 hPa 0,0 l/m 0 min 0 min 0 W/m 22,5 km/h (4 Bft) 95,74 %
01.02.2023 07:16 4,8 C 4,4 C 1,1 C 89 % 1019,6 hPa 0,0 l/m 0 min 0 min 0 W/m 16,1 km/h (3 Bft) 95,74 %
01.02.2023 07:18 4,8 C 4,4 C 1,1 C 89 % 1019,6 hPa 0,0 l/m 0 min 0 min 0 W/m 22,5 km/h (4 Bft) 97,87 %
01.02.2023 07:20 4,8 C 4,4 C 1,1 C 89 % 1019,5 hPa 0,0 l/m 0 min 0 min 0 W/m 16,1 km/h (3 Bft) 91,49 %
01.02.2023 07:22 4,8 C 4,4 C 1,1 C 89 % 1019,6 hPa 0,0 l/m 0 min 0 min 0 W/m 19,3 km/h (3 Bft) 91,30 %
01.02.2023 07:24 4,9 C 4,4 C 1,1 C 89 % 1019,7 hPa 0,0 l/m 0 min 0 min 0 W/m 12,9 km/h (3 Bft) 97,87 %
01.02.2023 07:26 4,9 C 4,4 C 1,1 C 89 % 1019,7 hPa 0,0 l/m 0 min 0 min 0 W/m 16,1 km/h (3 Bft) 97,87 %
01.02.2023 07:28 4,9 C 4,4 C 1,7 C 89 % 1019,7 hPa 0,0 l/m 0 min 0 min 0 W/m 19,3 km/h (3 Bft) 97,87 %
01.02.2023 07:30 4,9 C 4,4 C 1,7 C 89 % 1019,7 hPa 0,0 l/m 0 min 0 min 0 W/m 12,9 km/h (3 Bft) 97,87 %
01.02.2023 07:32 4,9 C 4,4 C 1,7 C 89 % 1019,8 hPa 0,0 l/m 0 min 0 min 0 W/m 19,3 km/h (3 Bft) 93,62 %
01.02.2023 07:34 5,0 C 4,4 C 1,7 C 89 % 1019,8 hPa 0,0 l/m 0 min 0 min 0 W/m 25,7 km/h (4 Bft) 93,62 %
01.02.2023 07:36 5,1 C 4,4 C 1,7 C 89 % 1019,7 hPa 0,0 l/m 0 min 0 min 0 W/m 29,0 km/h (5 Bft) 97,83 %
01.02.2023 07:38 5,1 C 4,4 C 1,7 C 89 % 1019,7 hPa 0,0 l/m 0 min 0 min 0 W/m 22,5 km/h (4 Bft) 95,74 %
01.02.2023 07:40 5,1 C 4,4 C 1,7 C 89 % 1019,8 hPa 0,0 l/m 0 min 0 min 0 W/m 19,3 km/h (3 Bft) 97,87 %
01.02.2023 07:42 5,1 C 4,4 C 1,7 C 89 % 1019,8 hPa 0,0 l/m 0 min 0 min 0 W/m 16,1 km/h (3 Bft) 97,87 %
01.02.2023 07:44 5,2 C 4,4 C 1,7 C 89 % 1019,7 hPa 0,0 l/m 0 min 0 min 0 W/m 25,7 km/h (4 Bft) 97,87 %
01.02.2023 07:46 5,2 C 4,4 C 1,7 C 89 % 1019,8 hPa 0,0 l/m 0 min 0 min 0 W/m 19,3 km/h (3 Bft) 100,00 %
01.02.2023 07:48 5,2 C 4,4 C 1,7 C 89 % 1019,6 hPa 0,0 l/m 0 min 0 min 0 W/m 16,1 km/h (3 Bft) 100,00 %
01.02.2023 07:50 5,2 C 4,4 C 1,7 C 88 % 1019,6 hPa 0,0 l/m 0 min 0 min 0 W/m 19,3 km/h (3 Bft) 97,83 %
01.02.2023 07:52 5,2 C 4,4 C 1,7 C 88 % 1019,6 hPa 0,0 l/m 0 min 0 min 0 W/m 16,1 km/h (3 Bft) 100,00 %
01.02.2023 07:54 5,2 C 4,4 C 1,7 C 88 % 1019,7 hPa 0,0 l/m 0 min 0 min 0 W/m 16,1 km/h (3 Bft) 100,00 %
01.02.2023 07:56 5,2 C 4,4 C 1,7 C 89 % 1019,6 hPa 0,0 l/m 0 min 0 min 0 W/m 22,5 km/h (4 Bft) 97,87 %
01.02.2023 07:58 5,2 C 4,4 C 1,7 C 89 % 1019,7 hPa 0,0 l/m 0 min 0 min 0 W/m 29,0 km/h (5 Bft) 100,00 %
01.02.2023 08:00 5,2 C 4,4 C 1,7 C 89 % 1019,7 hPa 0,0 l/m 0 min 0 min 0 W/m 19,3 km/h (3 Bft) 100,00 %
01.02.2023 08:02 5,2 C 4,4 C 1,7 C 88 % 1019,7 hPa 0,0 l/m 0 min 0 min 0 W/m 16,1 km/h (3 Bft) 97,87 %
01.02.2023 08:04 5,2 C 4,4 C 1,7 C 88 % 1019,7 hPa 0,0 l/m 0 min 0 min 1 W/m 19,3 km/h (3 Bft) 100,00 %
01.02.2023 08:06 5,2 C 4,4 C 1,7 C 89 % 1019,7 hPa 0,0 l/m 0 min 0 min 1 W/m 19,3 km/h (3 Bft) 100,00 %
01.02.2023 08:08 5,2 C 4,4 C 1,7 C 89 % 1019,8 hPa 0,0 l/m 0 min 0 min 0 W/m 16,1 km/h (3 Bft) 100,00 %
01.02.2023 08:10 5,2 C 4,4 C 1,7 C 89 % 1019,7 hPa 0,0 l/m 0 min 0 min 4 W/m 29,0 km/h (5 Bft) 97,87 %
01.02.2023 08:12 5,3 C 4,4 C 1,7 C 89 % 1019,8 hPa 0,0 l/m 0 min 0 min 5 W/m 35,4 km/h (5 Bft) 100,00 %
01.02.2023 08:14 5,3 C 5,0 C 1,7 C 89 % 1019,8 hPa 0,0 l/m 0 min 0 min 5 W/m 22,5 km/h (4 Bft) 100,00 %
01.02.2023 08:16 5,3 C 4,4 C 1,7 C 88 % 1019,8 hPa 0,0 l/m 0 min 0 min 5 W/m 22,5 km/h (4 Bft) 97,87 %
01.02.2023 08:18 5,3 C 5,0 C 1,7 C 88 % 1019,8 hPa 0,0 l/m 0 min 0 min 5 W/m 41,8 km/h (6 Bft) 97,83 %
01.02.2023 08:20 5,3 C 5,0 C 1,7 C 89 % 1019,9 hPa 0,0 l/m 0 min 0 min 5 W/m 16,1 km/h (3 Bft) 100,00 %
01.02.2023 08:22 5,3 C 5,0 C 1,7 C 89 % 1019,9 hPa 0,0 l/m 0 min 0 min 5 W/m 19,3 km/h (3 Bft) 100,00 %
01.02.2023 08:24 5,3 C 5,0 C 1,7 C 89 % 1019,9 hPa 0,0 l/m 0 min 0 min 6 W/m 25,7 km/h (4 Bft) 97,87 %
01.02.2023 08:26 5,3 C 5,0 C 1,7 C 89 % 1019,8 hPa 0,0 l/m 0 min 0 min 7 W/m 19,3 km/h (3 Bft) 97,87 %
01.02.2023 08:28 5,4 C 5,0 C 1,7 C 89 % 1019,9 hPa 0,0 l/m 0 min 0 min 9 W/m 19,3 km/h (3 Bft) 97,87 %
01.02.2023 08:30 5,4 C 5,0 C 1,7 C 89 % 1019,9 hPa 0,0 l/m 0 min 0 min 9 W/m 22,5 km/h (4 Bft) 97,87 %
01.02.2023 08:32 5,4 C 5,0 C 1,7 C 89 % 1019,9 hPa 0,0 l/m 0 min 0 min 9 W/m 19,3 km/h (3 Bft) 97,96 %
01.02.2023 08:34 5,4 C 5,0 C 1,7 C 88 % 1019,9 hPa 0,0 l/m 0 min 0 min 9 W/m 22,5 km/h (4 Bft) 95,74 %
01.02.2023 08:36 5,4 C 5,0 C 1,7 C 88 % 1019,9 hPa 0,0 l/m 0 min 0 min 9 W/m 19,3 km/h (3 Bft) 97,14 %
01.02.2023 08:38 5,4 C 5,0 C 1,7 C 88 % 1019,9 hPa 0,0 l/m 0 min 0 min 9 W/m 32,2 km/h (5 Bft) 94,64 %
01.02.2023 08:40 5,4 C 5,0 C 1,7 C 88 % 1019,8 hPa 0,0 l/m 0 min 0 min 10 W/m 16,1 km/h (3 Bft) 98,00 %
01.02.2023 08:42 5,4 C 5,0 C 1,7 C 88 % 1019,8 hPa 0,0 l/m 0 min 0 min 9 W/m 22,5 km/h (4 Bft) 95,74 %
01.02.2023 08:44 5,4 C 5,0 C 1,7 C 88 % 1019,9 hPa 0,0 l/m 0 min 0 min 10 W/m 19,3 km/h (3 Bft) 95,65 %
01.02.2023 08:46 5,4 C 5,0 C 1,7 C 88 % 1019,9 hPa 0,0 l/m 0 min 0 min 11 W/m 19,3 km/h (3 Bft) 95,74 %
01.02.2023 08:48 5,4 C 5,0 C 1,7 C 88 % 1020,0 hPa 0,0 l/m 0 min 0 min 13 W/m 19,3 km/h (3 Bft) 97,87 %
01.02.2023 08:50 5,4 C 5,0 C 1,7 C 88 % 1020,0 hPa 0,0 l/m 0 min 0 min 12 W/m 54,7 km/h (7 Bft) 97,87 %
01.02.2023 08:52 5,4 C 5,0 C 1,7 C 88 % 1020,0 hPa 0,0 l/m 0 min 0 min 11 W/m 22,5 km/h (4 Bft) 97,87 %
01.02.2023 08:54 5,4 C 5,0 C 1,7 C 88 % 1020,0 hPa 0,0 l/m 0 min 0 min 12 W/m 19,3 km/h (3 Bft) 93,62 %
01.02.2023 08:56 5,4 C 5,0 C 1,7 C 88 % 1020,0 hPa 0,0 l/m 0 min 0 min 13 W/m 12,9 km/h (3 Bft) 95,74 %
01.02.2023 08:58 5,4 C 5,0 C 1,7 C 88 % 1020,0 hPa 0,0 l/m 0 min 0 min 16 W/m 19,3 km/h (3 Bft) 97,83 %
01.02.2023 09:00 5,4 C 5,0 C 1,7 C 88 % 1020,0 hPa 0,0 l/m 0 min 0 min 19 W/m 16,1 km/h (3 Bft) 98,00 %
01.02.2023 09:02 5,4 C 5,0 C 1,7 C 88 % 1019,9 hPa 0,0 l/m 0 min 0 min 23 W/m 19,3 km/h (3 Bft) 93,62 %
01.02.2023 09:04 5,4 C 5,0 C 1,7 C 88 % 1019,9 hPa 0,0 l/m 0 min 0 min 26 W/m 22,5 km/h (4 Bft) 93,62 %
01.02.2023 09:06 5,4 C 5,0 C 1,7 C 88 % 1020,0 hPa 0,0 l/m 0 min 0 min 29 W/m 16,1 km/h (3 Bft) 95,74 %
01.02.2023 09:08 5,4 C 5,0 C 1,7 C 88 % 1020,0 hPa 0,0 l/m 0 min 0 min 33 W/m 22,5 km/h (4 Bft) 93,62 %
01.02.2023 09:10 5,4 C 5,0 C 1,7 C 88 % 1019,9 hPa 0,0 l/m 0 min 0 min 35 W/m 19,3 km/h (3 Bft) 89,36 %
01.02.2023 09:12 5,4 C 5,0 C 1,7 C 88 % 1020,0 hPa 0,0 l/m 0 min 0 min 36 W/m 22,5 km/h (4 Bft) 93,48 %
01.02.2023 09:14 5,4 C 5,0 C 1,7 C 88 % 1020,0 hPa 0,0 l/m 0 min 0 min 38 W/m 19,3 km/h (3 Bft) 95,74 %
01.02.2023 09:16 5,4 C 5,0 C 1,7 C 88 % 1020,0 hPa 0,0 l/m 0 min 0 min 39 W/m 25,7 km/h (4 Bft) 93,62 %
01.02.2023 09:18 5,4 C 5,0 C 1,7 C 88 % 1020,1 hPa 0,0 l/m 0 min 0 min 40 W/m 32,2 km/h (5 Bft) 95,74 %
01.02.2023 09:20 5,4 C 5,0 C 1,7 C 88 % 1020,0 hPa 0,0 l/m 0 min 0 min 46 W/m 22,5 km/h (4 Bft) 95,74 %
01.02.2023 09:22 5,4 C 5,0 C 1,7 C 88 % 1020,1 hPa 0,0 l/m 0 min 0 min 50 W/m 16,1 km/h (3 Bft) 94,29 %
01.02.2023 09:24 5,4 C 5,0 C 1,7 C 88 % 1020,1 hPa 0,0 l/m 0 min 0 min 53 W/m 32,2 km/h (5 Bft) 96,08 %
01.02.2023 09:26 5,4 C 5,0 C 1,7 C 88 % 1020,0 hPa 0,0 l/m 0 min 0 min 53 W/m 19,3 km/h (3 Bft) 93,62 %
01.02.2023 09:28 5,4 C 5,0 C 1,7 C 88 % 1020,1 hPa 0,0 l/m 0 min 0 min 54 W/m 22,5 km/h (4 Bft) 93,62 %
01.02.2023 09:30 5,4 C 5,0 C 1,7 C 88 % 1020,2 hPa 0,0 l/m 0 min 0 min 60 W/m 22,5 km/h (4 Bft) 97,83 %
01.02.2023 09:32 5,4 C 5,0 C 1,7 C 88 % 1020,3 hPa 0,0 l/m 0 min 0 min 65 W/m 22,5 km/h (4 Bft) 93,62 %
01.02.2023 09:34 5,4 C 5,0 C 1,7 C 88 % 1020,4 hPa 0,0 l/m 0 min 0 min 61 W/m 35,4 km/h (5 Bft) 95,74 %
01.02.2023 09:36 5,4 C 5,0 C 1,7 C 88 % 1020,4 hPa 0,0 l/m 0 min 0 min 61 W/m 22,5 km/h (4 Bft) 95,74 %
01.02.2023 09:38 5,4 C 5,0 C 2,2 C 88 % 1020,3 hPa 0,0 l/m 0 min 0 min 66 W/m 22,5 km/h (4 Bft) 95,74 %
01.02.2023 09:40 5,5 C 5,0 C 2,2 C 88 % 1020,4 hPa 0,0 l/m 0 min 0 min 68 W/m 22,5 km/h (4 Bft) 93,62 %
01.02.2023 09:42 5,5 C 5,0 C 2,2 C 88 % 1020,4 hPa 0,0 l/m 0 min 0 min 69 W/m 19,3 km/h (3 Bft) 97,83 %
01.02.2023 09:44 5,6 C 5,0 C 2,2 C 88 % 1020,4 hPa 0,0 l/m 0 min 0 min 62 W/m 19,3 km/h (3 Bft) 97,87 %
01.02.2023 09:46 5,6 C 5,0 C 2,2 C 88 % 1020,5 hPa 0,0 l/m 0 min 0 min 55 W/m 25,7 km/h (4 Bft) 97,87 %
01.02.2023 09:48 5,6 C 5,0 C 2,2 C 88 % 1020,5 hPa 0,0 l/m 0 min 0 min 56 W/m 22,5 km/h (4 Bft) 100,00 %
01.02.2023 09:50 5,6 C 5,6 C 2,2 C 88 % 1020,4 hPa 0,0 l/m 0 min 0 min 66 W/m 16,1 km/h (3 Bft) 100,00 %
01.02.2023 09:52 5,6 C 5,6 C 2,2 C 88 % 1020,5 hPa 0,0 l/m 0 min 0 min 67 W/m 16,1 km/h (3 Bft) 100,00 %
01.02.2023 09:54 5,6 C 5,6 C 2,2 C 88 % 1020,5 hPa 0,0 l/m 0 min 0 min 54 W/m 22,5 km/h (4 Bft) 100,00 %
01.02.2023 09:56 5,6 C 5,6 C 2,2 C 88 % 1020,5 hPa 0,0 l/m 0 min 0 min 52 W/m 16,1 km/h (3 Bft) 100,00 %
01.02.2023 09:58 5,7 C 5,6 C 2,2 C 88 % 1020,4 hPa 0,0 l/m 0 min 0 min 67 W/m 19,3 km/h (3 Bft) 100,00 %
01.02.2023 10:00 5,7 C 5,6 C 2,2 C 88 % 1020,4 hPa 0,0 l/m 0 min 0 min 80 W/m 25,7 km/h (4 Bft) 100,00 %
01.02.2023 10:02 5,7 C 5,6 C 2,2 C 88 % 1020,4 hPa 0,0 l/m 0 min 0 min 87 W/m 22,5 km/h (4 Bft) 97,87 %
01.02.2023 10:04 5,7 C 5,6 C 2,2 C 88 % 1020,4 hPa 0,0 l/m 0 min 0 min 86 W/m 32,2 km/h (5 Bft) 100,00 %
01.02.2023 10:06 5,7 C 5,6 C 2,2 C 88 % 1020,3 hPa 0,0 l/m 0 min 0 min 59 W/m 32,2 km/h (5 Bft) 100,00 %
01.02.2023 10:08 5,8 C 5,6 C 2,2 C 87 % 1020,3 hPa 0,0 l/m 0 min 0 min 44 W/m 29,0 km/h (5 Bft) 97,87 %
01.02.2023 10:10 5,8 C 5,6 C 2,2 C 87 % 1020,3 hPa 0,0 l/m 0 min 0 min 38 W/m 19,3 km/h (3 Bft) 100,00 %
01.02.2023 10:12 5,8 C 5,6 C 2,2 C 87 % 1020,4 hPa 0,0 l/m 0 min 0 min 33 W/m 22,5 km/h (4 Bft) 100,00 %
01.02.2023 10:14 5,8 C 5,0 C 2,2 C 87 % 1020,3 hPa 0,0 l/m 0 min 0 min 25 W/m 16,1 km/h (3 Bft) 100,00 %
01.02.2023 10:16 5,7 C 5,0 C 2,2 C 87 % 1020,3 hPa 0,0 l/m 0 min 0 min 23 W/m 12,9 km/h (3 Bft) 53,49 %
01.02.2023 10:18 5,7 C 5,0 C 2,2 C 87 % 1020,3 hPa 0,0 l/m 0 min 0 min 36 W/m 19,3 km/h (3 Bft) 100,00 %
01.02.2023 10:20 5,7 C 5,6 C 2,2 C 87 % 1020,2 hPa 0,0 l/m 0 min 0 min 56 W/m 22,5 km/h (4 Bft) 100,00 %
01.02.2023 10:22 5,8 C 5,6 C 2,2 C 87 % 1020,3 hPa 0,0 l/m 0 min 0 min 95 W/m 19,3 km/h (3 Bft) 100,00 %
01.02.2023 10:24 5,8 C 5,6 C 2,2 C 87 % 1020,4 hPa 0,0 l/m 0 min 0 min 91 W/m 12,9 km/h (3 Bft) 100,00 %
01.02.2023 10:26 5,8 C 5,6 C 2,2 C 87 % 1020,3 hPa 0,0 l/m 0 min 0 min 82 W/m 29,0 km/h (5 Bft) 100,00 %
01.02.2023 10:28 5,8 C 5,6 C 2,2 C 87 % 1020,3 hPa 0,0 l/m 0 min 0 min 113 W/m 22,5 km/h (4 Bft) 97,87 %
01.02.2023 10:30 5,9 C 6,1 C 2,2 C 87 % 1020,3 hPa 0,0 l/m 0 min 0 min 117 W/m 16,1 km/h (3 Bft) 100,00 %
01.02.2023 10:32 5,9 C 6,1 C 2,2 C 87 % 1020,2 hPa 0,0 l/m 0 min 0 min 102 W/m 22,5 km/h (4 Bft) 95,74 %
01.02.2023 10:34 6,0 C 6,1 C 2,8 C 87 % 1020,2 hPa 0,0 l/m 0 min 0 min 110 W/m 25,7 km/h (4 Bft) 100,00 %
01.02.2023 10:36 6,0 C 6,1 C 2,8 C 87 % 1020,2 hPa 0,0 l/m 0 min 0 min 131 W/m 19,3 km/h (3 Bft) 95,65 %
01.02.2023 10:38 6,1 C 6,1 C 2,8 C 87 % 1020,2 hPa 0,0 l/m 2 min 0 min 139 W/m 35,4 km/h (5 Bft) 100,00 %
01.02.2023 10:40 6,1 C 6,1 C 2,8 C 87 % 1020,1 hPa 0,0 l/m 0 min 0 min 116 W/m 25,7 km/h (4 Bft) 100,00 %
01.02.2023 10:42 6,1 C 6,1 C 2,8 C 87 % 1020,1 hPa 0,0 l/m 0 min 0 min 73 W/m 25,7 km/h (4 Bft) 100,00 %
01.02.2023 10:44 6,1 C 5,6 C 2,8 C 87 % 1020,2 hPa 0,0 l/m 0 min 0 min 69 W/m 25,7 km/h (4 Bft) 100,00 %
01.02.2023 10:46 6,1 C 5,6 C 2,8 C 87 % 1020,2 hPa 0,0 l/m 0 min 0 min 81 W/m 29,0 km/h (5 Bft) 100,00 %
01.02.2023 10:48 6,1 C 6,1 C 2,8 C 87 % 1020,1 hPa 0,0 l/m 0 min 0 min 109 W/m 25,7 km/h (4 Bft) 100,00 %
01.02.2023 10:50 6,1 C 6,1 C 2,8 C 87 % 1020,1 hPa 0,0 l/m 0 min 0 min 106 W/m 25,7 km/h (4 Bft) 97,83 %
01.02.2023 10:52 6,1 C 6,1 C 2,8 C 87 % 1020,1 hPa 0,0 l/m 0 min 0 min 92 W/m 22,5 km/h (4 Bft) 100,00 %
01.02.2023 10:54 6,1 C 6,1 C 2,8 C 87 % 1020,1 hPa 0,0 l/m 0 min 0 min 76 W/m 29,0 km/h (5 Bft) 100,00 %
01.02.2023 10:56 6,1 C 6,1 C 2,8 C 87 % 1020,1 hPa 0,0 l/m 0 min 0 min 91 W/m 25,7 km/h (4 Bft) 100,00 %
01.02.2023 10:58 6,1 C 6,1 C 2,8 C 87 % 1020,1 hPa 0,0 l/m 0 min 0 min 144 W/m 29,0 km/h (5 Bft) 100,00 %
01.02.2023 11:00 6,1 C 6,1 C 2,8 C 87 % 1020,0 hPa 0,0 l/m 0 min 0 min 135 W/m 29,0 km/h (5 Bft) 100,00 %
01.02.2023 11:02 6,1 C 6,1 C 2,8 C 86 % 1020,0 hPa 0,0 l/m 0 min 0 min 109 W/m 25,7 km/h (4 Bft) 100,00 %
01.02.2023 11:04 6,1 C 6,1 C 2,8 C 86 % 1019,9 hPa 0,0 l/m 0 min 0 min 90 W/m 22,5 km/h (4 Bft) 100,00 %
01.02.2023 11:06 6,1 C 6,1 C 2,8 C 86 % 1019,8 hPa 0,0 l/m 0 min 0 min 96 W/m 16,1 km/h (3 Bft) 100,00 %
01.02.2023 11:08 6,1 C 7,2 C 2,8 C 86 % 1019,9 hPa 0,0 l/m 0 min 0 min 106 W/m 35,4 km/h (5 Bft) 93,62 %
01.02.2023 11:10 6,2 C 8,3 C 2,8 C 87 % 1020,1 hPa 0,0 l/m 2 min 0 min 271 W/m 22,5 km/h (4 Bft) 95,74 %
01.02.2023 11:12 6,3 C 8,9 C 2,8 C 86 % 1020,1 hPa 0,0 l/m 2 min 0 min 292 W/m 25,7 km/h (4 Bft) 95,74 %
01.02.2023 11:14 6,4 C 9,4 C 2,8 C 86 % 1020,0 hPa 0,0 l/m 2 min 0 min 302 W/m 22,5 km/h (4 Bft) 87,23 %
01.02.2023 11:16 6,5 C 9,4 C 3,3 C 86 % 1020,0 hPa 0,0 l/m 2 min 0 min 240 W/m 19,3 km/h (3 Bft) 92,86 %
01.02.2023 11:18 6,6 C 10,0 C 3,3 C 86 % 1020,1 hPa 0,0 l/m 2 min 0 min 307 W/m 19,3 km/h (3 Bft) 95,65 %
01.02.2023 11:20 6,7 C 10,0 C 3,3 C 86 % 1020,0 hPa 0,0 l/m 2 min 0 min 362 W/m 22,5 km/h (4 Bft) 95,74 %
01.02.2023 11:22 6,8 C 9,4 C 3,3 C 86 % 1020,0 hPa 0,0 l/m 2 min 0 min 403 W/m 32,2 km/h (5 Bft) 95,74 %
01.02.2023 11:24 6,8 C 8,9 C 3,3 C 85 % 1020,0 hPa 0,0 l/m 2 min 0 min 246 W/m 22,5 km/h (4 Bft) 95,74 %
01.02.2023 11:26 6,9 C 7,8 C 3,3 C 85 % 1019,9 hPa 0,0 l/m 2 min 0 min 197 W/m 32,2 km/h (5 Bft) 95,74 %
01.02.2023 11:28 6,9 C 7,2 C 3,3 C 85 % 1020,0 hPa 0,0 l/m 0 min 0 min 160 W/m 16,1 km/h (3 Bft) 95,74 %
01.02.2023 11:30 6,9 C 7,2 C 3,3 C 85 % 1019,9 hPa 0,0 l/m 0 min 0 min 140 W/m 41,8 km/h (6 Bft) 95,74 %
01.02.2023 11:32 6,8 C 6,7 C 3,3 C 85 % 1019,9 hPa 0,0 l/m 0 min 0 min 145 W/m 19,3 km/h (3 Bft) 93,48 %
01.02.2023 11:34 6,9 C 7,2 C 3,3 C 85 % 1019,9 hPa 0,0 l/m 2 min 0 min 175 W/m 25,7 km/h (4 Bft) 95,74 %
01.02.2023 11:36 6,9 C 7,2 C 3,3 C 85 % 1020,0 hPa 0,0 l/m 2 min 0 min 185 W/m 9,7 km/h (2 Bft) 23,08 %
01.02.2023 11:38 6,9 C 6,7 C 3,3 C 85 % 1019,9 hPa 0,0 l/m 0 min 0 min 125 W/m 19,3 km/h (3 Bft) 95,45 %
01.02.2023 11:40 6,8 C 6,7 C 3,3 C 84 % 1020,0 hPa 0,0 l/m 0 min 0 min 132 W/m 22,5 km/h (4 Bft) 95,74 %
01.02.2023 11:42 6,8 C 6,7 C 3,3 C 84 % 1020,0 hPa 0,0 l/m 0 min 0 min 168 W/m 19,3 km/h (3 Bft) 95,74 %
01.02.2023 11:44 6,8 C 6,7 C 3,3 C 84 % 1020,0 hPa 0,0 l/m 0 min 0 min 148 W/m 25,7 km/h (4 Bft) 97,87 %
01.02.2023 11:46 6,8 C 6,7 C 3,3 C 84 % 1019,9 hPa 0,0 l/m 0 min 0 min 81 W/m 35,4 km/h (5 Bft) 95,65 %
01.02.2023 11:48 6,8 C 6,7 C 3,3 C 84 % 1020,0 hPa 0,0 l/m 0 min 0 min 80 W/m 16,1 km/h (3 Bft) 97,87 %
01.02.2023 11:50 6,8 C 6,7 C 3,3 C 84 % 1019,9 hPa 0,0 l/m 0 min 0 min 97 W/m 32,2 km/h (5 Bft) 95,74 %
01.02.2023 11:52 6,8 C 6,7 C 3,3 C 84 % 1020,0 hPa 0,0 l/m 0 min 0 min 104 W/m 25,7 km/h (4 Bft) 95,74 %
01.02.2023 11:54 6,8 C 6,7 C 3,3 C 84 % 1020,0 hPa 0,0 l/m 0 min 0 min 96 W/m 25,7 km/h (4 Bft) 95,74 %
01.02.2023 11:56 6,8 C 6,7 C 3,3 C 84 % 1019,9 hPa 0,0 l/m 0 min 0 min 76 W/m 29,0 km/h (5 Bft) 97,87 %
01.02.2023 11:58 6,8 C 6,7 C 3,3 C 84 % 1019,9 hPa 0,0 l/m 0 min 0 min 79 W/m 22,5 km/h (4 Bft) 100,00 %
01.02.2023 12:00 6,8 C 6,7 C 3,3 C 84 % 1019,9 hPa 0,0 l/m 0 min 0 min 115 W/m 16,1 km/h (3 Bft) 97,83 %
01.02.2023 12:02 6,8 C 6,7 C 3,3 C 84 % 1019,9 hPa 0,0 l/m 0 min 0 min 142 W/m 35,4 km/h (5 Bft) 100,00 %
01.02.2023 12:04 6,8 C 6,7 C 3,3 C 84 % 1019,9 hPa 0,0 l/m 0 min 0 min 113 W/m 19,3 km/h (3 Bft) 97,56 %
01.02.2023 12:07 6,8 C 6,7 C 3,3 C 84 % 1019,8 hPa 0,0 l/m 0 min 0 min 99 W/m 35,4 km/h (5 Bft) 98,70 %
01.02.2023 12:08 6,8 C 6,7 C 3,3 C 84 % 1019,8 hPa 0,0 l/m 0 min 0 min 113 W/m 19,3 km/h (3 Bft) 95,83 %
01.02.2023 12:10 6,8 C 6,7 C 3,3 C 84 % 1019,9 hPa 0,0 l/m 0 min 0 min 99 W/m 19,3 km/h (3 Bft) 98,00 %
01.02.2023 12:12 6,9 C 6,7 C 3,3 C 84 % 1019,8 hPa 0,0 l/m 0 min 0 min 97 W/m 29,0 km/h (5 Bft) 95,65 %
01.02.2023 12:14 6,9 C 6,7 C 3,3 C 84 % 1019,9 hPa 0,0 l/m 0 min 0 min 89 W/m 38,6 km/h (5 Bft) 95,74 %
01.02.2023 12:16 6,9 C 6,7 C 3,3 C 84 % 1019,9 hPa 0,0 l/m 0 min 0 min 83 W/m 32,2 km/h (5 Bft) 97,87 %
01.02.2023 12:18 6,9 C 6,7 C 3,3 C 83 % 1019,9 hPa 0,0 l/m 0 min 0 min 105 W/m 25,7 km/h (4 Bft) 97,87 %
01.02.2023 12:20 6,9 C 6,7 C 3,3 C 84 % 1019,9 hPa 0,0 l/m 0 min 0 min 92 W/m 32,2 km/h (5 Bft) 97,87 %
01.02.2023 12:22 6,9 C 6,7 C 3,3 C 83 % 1019,7 hPa 0,0 l/m 0 min 0 min 72 W/m 29,0 km/h (5 Bft) 97,87 %
01.02.2023 12:24 6,9 C 6,7 C 3,3 C 83 % 1019,7 hPa 0,0 l/m 0 min 0 min 90 W/m 19,3 km/h (3 Bft) 95,74 %
01.02.2023 12:26 6,9 C 6,7 C 3,3 C 83 % 1019,7 hPa 0,0 l/m 0 min 0 min 98 W/m 16,1 km/h (3 Bft) 95,65 %
01.02.2023 12:28 6,9 C 6,7 C 3,3 C 84 % 1019,7 hPa 0,0 l/m 0 min 0 min 104 W/m 19,3 km/h (3 Bft) 97,87 %
01.02.2023 12:30 7,0 C 6,7 C 3,3 C 84 % 1019,7 hPa 0,0 l/m 0 min 0 min 84 W/m 19,3 km/h (3 Bft) 95,74 %
01.02.2023 12:32 7,0 C 6,7 C 3,3 C 83 % 1019,7 hPa 0,0 l/m 0 min 0 min 65 W/m 29,0 km/h (5 Bft) 97,87 %
01.02.2023 12:34 7,0 C 6,7 C 3,3 C 83 % 1019,6 hPa 0,0 l/m 0 min 0 min 68 W/m 22,5 km/h (4 Bft) 97,87 %
01.02.2023 12:36 7,0 C 6,7 C 3,3 C 83 % 1019,5 hPa 0,0 l/m 0 min 0 min 84 W/m 22,5 km/h (4 Bft) 97,87 %
01.02.2023 12:38 7,0 C 6,7 C 3,3 C 83 % 1019,5 hPa 0,0 l/m 0 min 0 min 93 W/m 22,5 km/h (4 Bft) 97,87 %
01.02.2023 12:40 7,1 C 6,7 C 3,3 C 83 % 1019,5 hPa 0,0 l/m 0 min 0 min 87 W/m 19,3 km/h (3 Bft) 97,83 %
01.02.2023 12:42 7,1 C 6,7 C 3,3 C 83 % 1019,6 hPa 0,0 l/m 0 min 0 min 71 W/m 19,3 km/h (3 Bft) 97,87 %
01.02.2023 12:44 7,1 C 6,7 C 3,3 C 83 % 1019,6 hPa 0,0 l/m 0 min 0 min 88 W/m 25,7 km/h (4 Bft) 97,87 %
01.02.2023 12:46 7,1 C 6,7 C 3,3 C 83 % 1019,4 hPa 0,0 l/m 0 min 0 min 88 W/m 25,7 km/h (4 Bft) 97,87 %
01.02.2023 12:48 7,1 C 6,7 C 3,3 C 83 % 1019,4 hPa 0,0 l/m 0 min 0 min 81 W/m 29,0 km/h (5 Bft) 97,87 %
01.02.2023 12:50 7,1 C 6,7 C 3,3 C 83 % 1019,4 hPa 0,0 l/m 0 min 0 min 93 W/m 29,0 km/h (5 Bft) 97,87 %
01.02.2023 12:52 7,1 C 6,7 C 3,3 C 83 % 1019,3 hPa 0,0 l/m 0 min 0 min 96 W/m 19,3 km/h (3 Bft) 97,87 %
01.02.2023 12:54 7,1 C 6,7 C 3,3 C 83 % 1019,4 hPa 0,0 l/m 0 min 2 min 100 W/m 22,5 km/h (4 Bft) 100,00 %
01.02.2023 12:56 7,1 C 6,7 C 3,3 C 83 % 1019,3 hPa 0,0 l/m 0 min 0 min 99 W/m 41,8 km/h (6 Bft) 97,87 %
01.02.2023 12:58 7,1 C 6,7 C 3,3 C 83 % 1019,2 hPa 0,0 l/m 0 min 0 min 94 W/m 29,0 km/h (5 Bft) 97,87 %
01.02.2023 13:00 7,1 C 6,7 C 3,3 C 83 % 1019,4 hPa 0,0 l/m 0 min 0 min 90 W/m 19,3 km/h (3 Bft) 95,74 %
01.02.2023 13:02 7,1 C 6,7 C 3,3 C 83 % 1019,3 hPa 0,0 l/m 0 min 0 min 105 W/m 16,1 km/h (3 Bft) 100,00 %
01.02.2023 13:04 7,2 C 6,7 C 3,3 C 83 % 1019,3 hPa 0,0 l/m 0 min 0 min 97 W/m 22,5 km/h (4 Bft) 100,00 %
01.02.2023 13:06 7,2 C 7,2 C 3,3 C 83 % 1019,2 hPa 0,0 l/m 0 min 0 min 107 W/m 16,1 km/h (3 Bft) 100,00 %
01.02.2023 13:08 7,2 C 7,2 C 3,3 C 83 % 1019,2 hPa 0,0 l/m 0 min 0 min 100 W/m 29,0 km/h (5 Bft) 100,00 %
01.02.2023 13:10 7,2 C 6,7 C 3,3 C 83 % 1019,2 hPa 0,0 l/m 0 min 0 min 84 W/m 25,7 km/h (4 Bft) 97,87 %
01.02.2023 13:12 7,2 C 6,7 C 3,3 C 83 % 1019,3 hPa 0,0 l/m 0 min 0 min 65 W/m 19,3 km/h (3 Bft) 97,87 %
01.02.2023 13:14 7,2 C 6,7 C 3,3 C 83 % 1019,3 hPa 0,0 l/m 0 min 0 min 53 W/m 22,5 km/h (4 Bft) 95,74 %
01.02.2023 13:16 7,2 C 6,7 C 3,3 C 83 % 1019,3 hPa 0,0 l/m 0 min 0 min 46 W/m 19,3 km/h (3 Bft) 97,87 %
01.02.2023 13:18 7,2 C 6,7 C 3,3 C 83 % 1019,2 hPa 0,0 l/m 0 min 0 min 39 W/m 19,3 km/h (3 Bft) 97,87 %
01.02.2023 13:20 7,1 C 6,7 C 3,3 C 83 % 1019,3 hPa 0,0 l/m 0 min 0 min 34 W/m 29,0 km/h (5 Bft) 97,83 %
01.02.2023 13:22 7,1 C 6,7 C 3,3 C 83 % 1019,2 hPa 0,0 l/m 0 min 0 min 30 W/m 22,5 km/h (4 Bft) 97,87 %
01.02.2023 13:24 7,1 C 6,7 C 3,3 C 83 % 1019,2 hPa 0,0 l/m 0 min 0 min 38 W/m 22,5 km/h (4 Bft) 95,74 %
01.02.2023 13:26 7,1 C 6,7 C 3,3 C 83 % 1019,2 hPa 0,0 l/m 0 min 0 min 51 W/m 16,1 km/h (3 Bft) 93,62 %
01.02.2023 13:28 7,1 C 6,7 C 3,3 C 83 % 1019,2 hPa 0,0 l/m 0 min 0 min 44 W/m 19,3 km/h (3 Bft) 97,87 %
01.02.2023 13:30 7,1 C 6,7 C 3,3 C 83 % 1019,2 hPa 0,0 l/m 0 min 0 min 40 W/m 19,3 km/h (3 Bft) 95,74 %
01.02.2023 13:32 7,1 C 6,7 C 3,3 C 83 % 1019,2 hPa 0,0 l/m 0 min 0 min 49 W/m 22,5 km/h (4 Bft) 97,83 %
01.02.2023 13:34 7,1 C 6,7 C 3,3 C 83 % 1019,2 hPa 0,0 l/m 0 min 0 min 44 W/m 16,1 km/h (3 Bft) 97,87 %
01.02.2023 13:36 7,1 C 6,7 C 3,3 C 83 % 1019,2 hPa 0,0 l/m 0 min 0 min 47 W/m 19,3 km/h (3 Bft) 97,87 %
01.02.2023 13:38 7,1 C 6,7 C 3,3 C 83 % 1019,2 hPa 0,0 l/m 0 min 0 min 52 W/m 16,1 km/h (3 Bft) 97,87 %
01.02.2023 13:40 7,2 C 6,7 C 3,3 C 83 % 1019,1 hPa 0,0 l/m 0 min 0 min 58 W/m 19,3 km/h (3 Bft) 97,87 %
01.02.2023 13:42 7,2 C 6,7 C 3,3 C 83 % 1019,0 hPa 0,0 l/m 0 min 0 min 36 W/m 19,3 km/h (3 Bft) 97,87 %
01.02.2023 13:44 7,2 C 6,7 C 3,3 C 83 % 1019,0 hPa 0,0 l/m 0 min 0 min 34 W/m 22,5 km/h (4 Bft) 100,00 %
01.02.2023 13:46 7,2 C 6,7 C 3,3 C 83 % 1019,1 hPa 0,0 l/m 0 min 0 min 33 W/m 22,5 km/h (4 Bft) 100,00 %
01.02.2023 13:48 7,2 C 6,7 C 3,3 C 83 % 1019,0 hPa 0,0 l/m 0 min 0 min 29 W/m 19,3 km/h (3 Bft) 100,00 %
01.02.2023 13:50 7,2 C 6,7 C 3,3 C 83 % 1019,0 hPa 0,0 l/m 0 min 0 min 33 W/m 19,3 km/h (3 Bft) 100,00 %
01.02.2023 13:52 7,2 C 6,7 C 3,3 C 83 % 1018,9 hPa 0,0 l/m 0 min 0 min 34 W/m 22,5 km/h (4 Bft) 100,00 %
01.02.2023 13:54 7,2 C 6,7 C 3,3 C 83 % 1018,9 hPa 0,0 l/m 0 min 0 min 30 W/m 22,5 km/h (4 Bft) 100,00 %
01.02.2023 13:56 7,2 C 6,7 C 3,3 C 83 % 1018,9 hPa 0,0 l/m 0 min 0 min 27 W/m 16,1 km/h (3 Bft) 97,87 %
01.02.2023 13:58 7,3 C 6,7 C 3,3 C 83 % 1018,9 hPa 0,0 l/m 0 min 0 min 27 W/m 16,1 km/h (3 Bft) 97,87 %
01.02.2023 14:00 7,3 C 6,7 C 3,3 C 82 % 1018,8 hPa 0,0 l/m 0 min 0 min 29 W/m 16,1 km/h (3 Bft) 95,65 %
01.02.2023 14:02 7,3 C 6,7 C 3,3 C 82 % 1018,8 hPa 0,0 l/m 0 min 0 min 31 W/m 16,1 km/h (3 Bft) 95,74 %
01.02.2023 14:04 7,3 C 6,7 C 3,3 C 82 % 1018,8 hPa 0,0 l/m 0 min 0 min 28 W/m 16,1 km/h (3 Bft) 97,87 %
01.02.2023 14:06 7,3 C 6,7 C 3,3 C 82 % 1018,8 hPa 0,0 l/m 0 min 0 min 23 W/m 22,5 km/h (4 Bft) 95,74 %
01.02.2023 14:08 7,3 C 6,7 C 3,3 C 82 % 1018,8 hPa 0,0 l/m 0 min 0 min 20 W/m 19,3 km/h (3 Bft) 97,96 %
01.02.2023 14:10 7,4 C 6,7 C 3,3 C 82 % 1018,8 hPa 0,0 l/m 0 min 0 min 19 W/m 19,3 km/h (3 Bft) 95,74 %
01.02.2023 14:12 7,4 C 6,7 C 3,3 C 82 % 1018,7 hPa 0,0 l/m 0 min 0 min 20 W/m 19,3 km/h (3 Bft) 97,87 %
01.02.2023 14:14 7,4 C 6,7 C 3,3 C 82 % 1018,8 hPa 0,0 l/m 0 min 0 min 21 W/m 16,1 km/h (3 Bft) 95,65 %
01.02.2023 14:16 7,4 C 6,7 C 3,3 C 82 % 1018,8 hPa 0,0 l/m 0 min 0 min 21 W/m 29,0 km/h (5 Bft) 97,87 %
01.02.2023 14:18 7,4 C 6,7 C 3,3 C 82 % 1018,8 hPa 0,0 l/m 0 min 0 min 24 W/m 22,5 km/h (4 Bft) 97,87 %
01.02.2023 14:20 7,4 C 6,7 C 3,3 C 81 % 1018,8 hPa 0,0 l/m 0 min 0 min 26 W/m 19,3 km/h (3 Bft) 97,87 %
01.02.2023 14:22 7,5 C 6,7 C 3,3 C 81 % 1018,7 hPa 0,0 l/m 0 min 0 min 28 W/m 25,7 km/h (4 Bft) 95,74 %
01.02.2023 14:24 7,5 C 6,7 C 3,3 C 81 % 1018,8 hPa 0,0 l/m 0 min 0 min 29 W/m 16,1 km/h (3 Bft) 97,87 %
01.02.2023 14:26 7,5 C 6,7 C 3,3 C 81 % 1018,8 hPa 0,0 l/m 0 min 0 min 23 W/m 16,1 km/h (3 Bft) 80,85 %
01.02.2023 14:28 7,5 C 6,7 C 3,3 C 81 % 1018,7 hPa 0,0 l/m 0 min 0 min 25 W/m 16,1 km/h (3 Bft) 71,11 %
01.02.2023 14:30 7,5 C 7,2 C 3,3 C 81 % 1018,8 hPa 0,0 l/m 0 min 0 min 25 W/m 29,0 km/h (5 Bft) 97,87 %
01.02.2023 14:32 7,6 C 7,2 C 3,3 C 81 % 1018,7 hPa 0,0 l/m 0 min 0 min 30 W/m 22,5 km/h (4 Bft) 97,87 %
01.02.2023 14:34 7,6 C 7,2 C 3,3 C 81 % 1018,8 hPa 0,0 l/m 0 min 0 min 31 W/m 22,5 km/h (4 Bft) 95,74 %
01.02.2023 14:36 7,6 C 7,2 C 3,3 C 81 % 1018,8 hPa 0,0 l/m 0 min 0 min 26 W/m 22,5 km/h (4 Bft) 95,74 %
01.02.2023 14:38 7,6 C 7,2 C 3,3 C 81 % 1018,7 hPa 0,0 l/m 0 min 0 min 26 W/m 19,3 km/h (3 Bft) 95,74 %
01.02.2023 14:40 7,6 C 7,2 C 3,3 C 81 % 1018,8 hPa 0,0 l/m 0 min 0 min 29 W/m 25,7 km/h (4 Bft) 95,65 %
01.02.2023 14:42 7,6 C 7,2 C 3,3 C 81 % 1018,7 hPa 0,0 l/m 0 min 0 min 32 W/m 19,3 km/h (3 Bft) 97,87 %
01.02.2023 14:44 7,6 C 7,2 C 3,3 C 81 % 1018,7 hPa 0,0 l/m 0 min 0 min 33 W/m 16,1 km/h (3 Bft) 100,00 %
01.02.2023 14:46 7,6 C 7,2 C 3,3 C 81 % 1018,6 hPa 0,0 l/m 0 min 0 min 37 W/m 19,3 km/h (3 Bft) 97,87 %
01.02.2023 14:48 7,6 C 7,2 C 3,3 C 80 % 1018,7 hPa 0,0 l/m 0 min 0 min 44 W/m 25,7 km/h (4 Bft) 100,00 %
01.02.2023 14:50 7,7 C 7,2 C 3,3 C 80 % 1018,7 hPa 0,0 l/m 0 min 0 min 42 W/m 25,7 km/h (4 Bft) 100,00 %
01.02.2023 14:52 7,7 C 7,2 C 3,3 C 80 % 1018,7 hPa 0,0 l/m 0 min 0 min 36 W/m 12,9 km/h (3 Bft) 100,00 %
01.02.2023 14:54 7,7 C 7,2 C 3,9 C 80 % 1018,7 hPa 0,0 l/m 0 min 0 min 49 W/m 25,7 km/h (4 Bft) 97,83 %
01.02.2023 14:56 7,7 C 7,2 C 3,9 C 80 % 1018,8 hPa 0,0 l/m 0 min 0 min 61 W/m 22,5 km/h (4 Bft) 97,87 %
01.02.2023 14:58 7,7 C 7,2 C 3,9 C 80 % 1018,8 hPa 0,0 l/m 0 min 0 min 58 W/m 25,7 km/h (4 Bft) 97,87 %
01.02.2023 15:00 7,7 C 7,2 C 3,9 C 80 % 1018,8 hPa 0,0 l/m 0 min 0 min 50 W/m 22,5 km/h (4 Bft) 97,87 %
01.02.2023 15:02 7,8 C 7,2 C 3,9 C 80 % 1018,8 hPa 0,0 l/m 0 min 0 min 49 W/m 19,3 km/h (3 Bft) 95,74 %
01.02.2023 15:04 7,8 C 7,2 C 3,9 C 80 % 1018,8 hPa 0,0 l/m 0 min 0 min 39 W/m 19,3 km/h (3 Bft) 97,87 %
01.02.2023 15:06 7,8 C 7,2 C 3,9 C 80 % 1018,9 hPa 0,0 l/m 0 min 0 min 35 W/m 19,3 km/h (3 Bft) 97,87 %
01.02.2023 15:08 7,8 C 7,2 C 3,9 C 80 % 1018,8 hPa 0,0 l/m 0 min 0 min 27 W/m 32,2 km/h (5 Bft) 94,29 %
01.02.2023 15:10 7,8 C 7,2 C 3,9 C 80 % 1018,9 hPa 0,0 l/m 0 min 0 min 27 W/m 16,1 km/h (3 Bft) 95,74 %
01.02.2023 15:12 7,8 C 7,2 C 3,3 C 80 % 1018,8 hPa 0,0 l/m 0 min 0 min 27 W/m 16,1 km/h (3 Bft) 93,48 %
01.02.2023 15:14 7,8 C 7,2 C 3,3 C 80 % 1018,9 hPa 0,0 l/m 0 min 0 min 23 W/m 25,7 km/h (4 Bft) 93,62 %
01.02.2023 15:16 7,8 C 7,2 C 3,9 C 80 % 1018,9 hPa 0,0 l/m 0 min 0 min 18 W/m 19,3 km/h (3 Bft) 95,74 %
01.02.2023 15:18 7,8 C 7,2 C 3,9 C 80 % 1018,9 hPa 0,0 l/m 0 min 0 min 18 W/m 19,3 km/h (3 Bft) 93,62 %
01.02.2023 15:20 7,8 C 7,2 C 3,3 C 80 % 1018,9 hPa 0,0 l/m 0 min 0 min 25 W/m 25,7 km/h (4 Bft) 95,74 %
01.02.2023 15:22 7,8 C 7,2 C 3,9 C 80 % 1018,9 hPa 0,0 l/m 0 min 0 min 25 W/m 25,7 km/h (4 Bft) 95,74 %
01.02.2023 15:24 7,8 C 7,2 C 3,9 C 80 % 1018,9 hPa 0,0 l/m 0 min 0 min 21 W/m 22,5 km/h (4 Bft) 95,74 %
01.02.2023 15:26 7,8 C 7,2 C 3,9 C 80 % 1018,9 hPa 0,0 l/m 0 min 0 min 24 W/m 29,0 km/h (5 Bft) 95,65 %
01.02.2023 15:28 7,8 C 7,2 C 3,9 C 80 % 1019,0 hPa 0,0 l/m 0 min 0 min 27 W/m 25,7 km/h (4 Bft) 93,62 %
01.02.2023 15:30 7,8 C 7,2 C 3,9 C 80 % 1018,9 hPa 0,0 l/m 0 min 0 min 31 W/m 25,7 km/h (4 Bft) 95,74 %
01.02.2023 15:32 7,8 C 7,2 C 3,9 C 80 % 1019,0 hPa 0,0 l/m 0 min 0 min 31 W/m 25,7 km/h (4 Bft) 95,74 %
01.02.2023 15:34 7,8 C 7,2 C 3,9 C 80 % 1018,9 hPa 0,0 l/m 0 min 0 min 30 W/m 19,3 km/h (3 Bft) 95,74 %
01.02.2023 15:36 7,8 C 7,2 C 3,9 C 80 % 1019,0 hPa 0,0 l/m 0 min 0 min 30 W/m 12,9 km/h (3 Bft) 95,74 %
01.02.2023 15:38 7,9 C 7,2 C 3,9 C 80 % 1019,0 hPa 0,0 l/m 0 min 0 min 40 W/m 25,7 km/h (4 Bft) 95,74 %
01.02.2023 15:40 7,9 C 7,2 C 3,9 C 80 % 1019,0 hPa 0,0 l/m 0 min 0 min 50 W/m 25,7 km/h (4 Bft) 95,65 %
01.02.2023 15:42 7,9 C 7,2 C 3,9 C 80 % 1019,0 hPa 0,0 l/m 0 min 0 min 54 W/m 19,3 km/h (3 Bft) 100,00 %
01.02.2023 15:44 7,9 C 7,2 C 3,9 C 80 % 1019,0 hPa 0,0 l/m 0 min 0 min 50 W/m 25,7 km/h (4 Bft) 100,00 %
01.02.2023 15:46 7,9 C 7,2 C 3,9 C 80 % 1019,0 hPa 0,0 l/m 0 min 0 min 47 W/m 19,3 km/h (3 Bft) 97,87 %
01.02.2023 15:48 7,9 C 7,2 C 3,9 C 80 % 1019,0 hPa 0,0 l/m 0 min 0 min 46 W/m 19,3 km/h (3 Bft) 100,00 %
01.02.2023 15:50 7,9 C 7,2 C 3,9 C 80 % 1019,0 hPa 0,0 l/m 0 min 0 min 36 W/m 25,7 km/h (4 Bft) 97,87 %
01.02.2023 15:52 8,0 C 7,2 C 3,9 C 80 % 1019,0 hPa 0,0 l/m 0 min 0 min 27 W/m 35,4 km/h (5 Bft) 97,87 %
01.02.2023 15:54 7,9 C 7,2 C 3,9 C 80 % 1019,0 hPa 0,0 l/m 0 min 0 min 27 W/m 25,7 km/h (4 Bft) 100,00 %
01.02.2023 15:56 7,9 C 7,2 C 3,9 C 80 % 1019,0 hPa 0,0 l/m 0 min 0 min 24 W/m 25,7 km/h (4 Bft) 100,00 %
01.02.2023 15:58 7,9 C 7,2 C 3,9 C 80 % 1018,9 hPa 0,0 l/m 0 min 0 min 25 W/m 25,7 km/h (4 Bft) 100,00 %
01.02.2023 16:00 7,9 C 7,2 C 3,9 C 80 % 1019,0 hPa 0,0 l/m 0 min 0 min 21 W/m 22,5 km/h (4 Bft) 100,00 %
01.02.2023 16:02 7,9 C 7,2 C 3,9 C 80 % 1019,0 hPa 0,0 l/m 0 min 0 min 24 W/m 22,5 km/h (4 Bft) 100,00 %
01.02.2023 16:04 7,9 C 7,2 C 3,9 C 81 % 1019,1 hPa 0,0 l/m 0 min 0 min 20 W/m 19,3 km/h (3 Bft) 100,00 %
01.02.2023 16:06 7,9 C 7,2 C 3,9 C 80 % 1019,1 hPa 0,0 l/m 0 min 0 min 19 W/m 25,7 km/h (4 Bft) 96,55 %
01.02.2023 16:08 7,9 C 7,2 C 3,9 C 80 % 1019,1 hPa 0,0 l/m 0 min 0 min 20 W/m 25,7 km/h (4 Bft) 100,00 %
01.02.2023 16:10 7,9 C 7,2 C 3,9 C 80 % 1019,2 hPa 0,0 l/m 0 min 0 min 23 W/m 22,5 km/h (4 Bft) 100,00 %
01.02.2023 16:12 7,9 C 7,2 C 3,9 C 80 % 1019,2 hPa 0,0 l/m 0 min 0 min 20 W/m 32,2 km/h (5 Bft) 100,00 %
01.02.2023 16:14 7,9 C 7,2 C 3,9 C 80 % 1019,2 hPa 0,0 l/m 0 min 0 min 23 W/m 22,5 km/h (4 Bft) 100,00 %
01.02.2023 16:16 7,9 C 7,2 C 3,9 C 81 % 1019,2 hPa 0,0 l/m 0 min 0 min 26 W/m 25,7 km/h (4 Bft) 100,00 %
01.02.2023 16:18 7,9 C 7,2 C 3,9 C 81 % 1019,2 hPa 0,0 l/m 0 min 0 min 25 W/m 22,5 km/h (4 Bft) 100,00 %
01.02.2023 16:20 7,9 C 7,2 C 3,9 C 81 % 1019,2 hPa 0,0 l/m 0 min 0 min 17 W/m 25,7 km/h (4 Bft) 97,87 %
01.02.2023 16:22 7,8 C 7,2 C 3,9 C 81 % 1019,2 hPa 0,0 l/m 0 min 0 min 11 W/m 22,5 km/h (4 Bft) 100,00 %
01.02.2023 16:24 7,8 C 7,2 C 3,9 C 81 % 1019,3 hPa 0,0 l/m 0 min 0 min 9 W/m 19,3 km/h (3 Bft) 100,00 %
01.02.2023 16:26 7,8 C 7,2 C 3,9 C 81 % 1019,3 hPa 0,0 l/m 0 min 0 min 11 W/m 35,4 km/h (5 Bft) 100,00 %
01.02.2023 16:28 7,8 C 7,2 C 3,3 C 81 % 1019,3 hPa 0,0 l/m 0 min 0 min 11 W/m 19,3 km/h (3 Bft) 100,00 %
01.02.2023 16:30 7,8 C 7,2 C 3,3 C 81 % 1019,3 hPa 0,0 l/m 0 min 0 min 10 W/m 19,3 km/h (3 Bft) 100,00 %
01.02.2023 16:32 7,8 C 7,2 C 3,3 C 82 % 1019,3 hPa 0,0 l/m 0 min 0 min 11 W/m 16,1 km/h (3 Bft) 97,87 %
01.02.2023 16:34 7,7 C 7,2 C 3,3 C 82 % 1019,2 hPa 0,0 l/m 0 min 0 min 16 W/m 19,3 km/h (3 Bft) 97,87 %
01.02.2023 16:36 7,7 C 7,2 C 3,3 C 82 % 1019,2 hPa 0,0 l/m 0 min 0 min 20 W/m 16,1 km/h (3 Bft) 100,00 %
01.02.2023 16:38 7,7 C 7,2 C 3,3 C 82 % 1019,2 hPa 0,0 l/m 0 min 0 min 12 W/m 25,7 km/h (4 Bft) 97,87 %
01.02.2023 16:40 7,7 C 7,2 C 3,3 C 82 % 1019,2 hPa 0,0 l/m 0 min 0 min 11 W/m 25,7 km/h (4 Bft) 100,00 %
01.02.2023 16:42 7,7 C 7,2 C 3,3 C 82 % 1019,2 hPa 0,0 l/m 0 min 0 min 12 W/m 22,5 km/h (4 Bft) 97,83 %
01.02.2023 16:44 7,7 C 7,2 C 3,3 C 82 % 1019,2 hPa 0,0 l/m 0 min 0 min 10 W/m 22,5 km/h (4 Bft) 100,00 %
01.02.2023 16:46 7,7 C 7,2 C 3,3 C 82 % 1019,1 hPa 0,0 l/m 0 min 0 min 9 W/m 22,5 km/h (4 Bft) 97,87 %
01.02.2023 16:48 7,7 C 7,2 C 3,3 C 82 % 1019,2 hPa 0,0 l/m 0 min 0 min 7 W/m 19,3 km/h (3 Bft) 97,87 %
01.02.2023 16:50 7,7 C 7,2 C 3,3 C 82 % 1019,2 hPa 0,0 l/m 0 min 0 min 8 W/m 19,3 km/h (3 Bft) 97,87 %
01.02.2023 16:52 7,7 C 7,2 C 3,3 C 82 % 1019,2 hPa 0,0 l/m 0 min 0 min 6 W/m 22,5 km/h (4 Bft) 95,74 %
01.02.2023 16:54 7,7 C 7,2 C 3,3 C 82 % 1019,2 hPa 0,0 l/m 0 min 0 min 5 W/m 19,3 km/h (3 Bft) 97,87 %
01.02.2023 16:56 7,7 C 7,2 C 3,3 C 82 % 1019,1 hPa 0,0 l/m 0 min 0 min 0 W/m 25,7 km/h (4 Bft) 93,48 %
01.02.2023 16:58 7,7 C 7,2 C 3,3 C 82 % 1019,2 hPa 0,0 l/m 0 min 0 min 0 W/m 16,1 km/h (3 Bft) 97,87 %
01.02.2023 17:00 7,7 C 7,2 C 3,3 C 82 % 1019,1 hPa 0,0 l/m 0 min 0 min 0 W/m 22,5 km/h (4 Bft) 95,74 %
01.02.2023 17:02 7,7 C 7,2 C 3,3 C 82 % 1019,2 hPa 0,0 l/m 0 min 0 min 0 W/m 19,3 km/h (3 Bft) 97,87 %
01.02.2023 17:04 7,7 C 7,2 C 3,3 C 82 % 1019,2 hPa 0,0 l/m 0 min 0 min 0 W/m 25,7 km/h (4 Bft) 97,87 %
01.02.2023 17:06 7,7 C 7,2 C 3,3 C 82 % 1019,2 hPa 0,0 l/m 0 min 0 min 0 W/m 25,7 km/h (4 Bft) 95,74 %
01.02.2023 17:08 7,7 C 7,2 C 3,3 C 82 % 1019,2 hPa 0,0 l/m 0 min 0 min 0 W/m 35,4 km/h (5 Bft) 93,62 %
01.02.2023 17:10 7,7 C 7,2 C 3,3 C 82 % 1019,3 hPa 0,0 l/m 0 min 0 min 0 W/m 25,7 km/h (4 Bft) 95,65 %
01.02.2023 17:12 7,7 C 7,2 C 3,3 C 82 % 1019,2 hPa 0,0 l/m 0 min 0 min 0 W/m 19,3 km/h (3 Bft) 95,74 %
01.02.2023 17:14 7,7 C 7,2 C 3,3 C 82 % 1019,2 hPa 0,0 l/m 0 min 0 min 0 W/m 22,5 km/h (4 Bft) 95,74 %
01.02.2023 17:16 7,7 C 7,2 C 3,3 C 82 % 1019,3 hPa 0,0 l/m 0 min 0 min 0 W/m 25,7 km/h (4 Bft) 95,74 %
01.02.2023 17:18 7,7 C 7,2 C 3,3 C 82 % 1019,4 hPa 0,0 l/m 0 min 0 min 0 W/m 25,7 km/h (4 Bft) 93,62 %
01.02.2023 17:20 7,7 C 7,2 C 3,3 C 82 % 1019,3 hPa 0,0 l/m 0 min 2 min 0 W/m 25,7 km/h (4 Bft) 93,62 %
01.02.2023 17:22 7,7 C 7,2 C 3,3 C 83 % 1019,2 hPa 0,0 l/m 0 min 0 min 0 W/m 25,7 km/h (4 Bft) 70,21 %
01.02.2023 17:24 7,7 C 7,2 C 3,3 C 83 % 1019,3 hPa 0,0 l/m 0 min 0 min 0 W/m 19,3 km/h (3 Bft) 64,29 %
01.02.2023 17:26 7,7 C 7,2 C 3,3 C 83 % 1019,3 hPa 0,0 l/m 0 min 0 min 0 W/m 19,3 km/h (3 Bft) 91,49 %
01.02.2023 17:28 7,7 C 7,2 C 3,3 C 83 % 1019,3 hPa 0,0 l/m 0 min 0 min 0 W/m 19,3 km/h (3 Bft) 93,62 %
01.02.2023 17:30 7,7 C 7,2 C 3,3 C 83 % 1019,3 hPa 0,0 l/m 0 min 0 min 0 W/m 32,2 km/h (5 Bft) 95,74 %
01.02.2023 17:32 7,7 C 7,2 C 3,3 C 83 % 1019,3 hPa 0,0 l/m 0 min 0 min 0 W/m 29,0 km/h (5 Bft) 93,62 %
01.02.2023 17:34 7,7 C 7,2 C 3,3 C 83 % 1019,4 hPa 0,0 l/m 0 min 0 min 0 W/m 25,7 km/h (4 Bft) 93,62 %
01.02.2023 17:36 7,7 C 7,2 C 3,3 C 83 % 1019,4 hPa 0,0 l/m 0 min 0 min 0 W/m 19,3 km/h (3 Bft) 97,83 %
01.02.2023 17:38 7,7 C 7,2 C 3,3 C 83 % 1019,4 hPa 0,0 l/m 0 min 0 min 0 W/m 25,7 km/h (4 Bft) 93,62 %
01.02.2023 17:40 7,7 C 7,2 C 3,3 C 83 % 1019,4 hPa 0,0 l/m 0 min 0 min 0 W/m 32,2 km/h (5 Bft) 95,74 %
01.02.2023 17:42 7,7 C 7,2 C 3,3 C 83 % 1019,4 hPa 0,0 l/m 0 min 0 min 0 W/m 22,5 km/h (4 Bft) 97,87 %
01.02.2023 17:44 7,7 C 7,2 C 3,3 C 83 % 1019,5 hPa 0,0 l/m 0 min 0 min 0 W/m 29,0 km/h (5 Bft) 97,87 %
01.02.2023 17:46 7,7 C 7,2 C 3,3 C 83 % 1019,5 hPa 0,0 l/m 0 min 0 min 0 W/m 32,2 km/h (5 Bft) 97,87 %
01.02.2023 17:48 7,7 C 6,7 C 3,3 C 83 % 1019,6 hPa 0,0 l/m 0 min 0 min 0 W/m 22,5 km/h (4 Bft) 95,74 %
01.02.2023 17:50 7,7 C 6,7 C 3,3 C 83 % 1019,7 hPa 0,0 l/m 0 min 0 min 0 W/m 29,0 km/h (5 Bft) 95,65 %
01.02.2023 17:52 7,6 C 6,7 C 3,3 C 83 % 1019,5 hPa 0,0 l/m 0 min 0 min 0 W/m 35,4 km/h (5 Bft) 80,85 %
01.02.2023 17:54 7,6 C 6,7 C 3,3 C 83 % 1019,5 hPa 0,0 l/m 0 min 0 min 0 W/m 22,5 km/h (4 Bft) 63,83 %
01.02.2023 17:56 7,6 C 6,7 C 3,3 C 83 % 1019,5 hPa 0,0 l/m 0 min 0 min 0 W/m 19,3 km/h (3 Bft) 51,06 %
01.02.2023 17:58 7,6 C 7,2 C 3,3 C 83 % 1019,6 hPa 0,0 l/m 0 min 0 min 0 W/m 32,2 km/h (5 Bft) 63,83 %
01.02.2023 18:00 7,7 C 7,2 C 3,3 C 83 % 1019,6 hPa 0,0 l/m 0 min 0 min 0 W/m 32,2 km/h (5 Bft) 63,83 %
01.02.2023 18:02 7,7 C 7,2 C 3,3 C 83 % 1019,6 hPa 0,0 l/m 0 min 0 min 0 W/m 32,2 km/h (5 Bft) 72,34 %
01.02.2023 18:04 7,7 C 7,2 C 3,3 C 83 % 1019,6 hPa 0,0 l/m 0 min 0 min 0 W/m 16,1 km/h (3 Bft) 63,83 %
01.02.2023 18:07 7,7 C 7,2 C 3,3 C 83 % 1019,7 hPa 0,0 l/m 0 min 0 min 0 W/m 29,0 km/h (5 Bft) 69,01 %
01.02.2023 18:08 7,7 C 7,2 C 3,3 C 83 % 1019,7 hPa 0,0 l/m 0 min 0 min 0 W/m 19,3 km/h (3 Bft) 78,26 %
01.02.2023 18:10 7,7 C 7,2 C 3,3 C 83 % 1019,8 hPa 0,0 l/m 0 min 0 min 0 W/m 16,1 km/h (3 Bft) 68,09 %
01.02.2023 18:12 7,7 C 6,7 C 3,3 C 83 % 1019,8 hPa 0,0 l/m 0 min 0 min 0 W/m 19,3 km/h (3 Bft) 65,96 %
01.02.2023 18:14 7,7 C 7,2 C 3,3 C 83 % 1019,7 hPa 0,0 l/m 0 min 0 min 0 W/m 25,7 km/h (4 Bft) 61,70 %
01.02.2023 18:16 7,6 C 6,7 C 3,3 C 83 % 1019,8 hPa 0,0 l/m 0 min 0 min 0 W/m 25,7 km/h (4 Bft) 63,83 %
01.02.2023 18:18 7,6 C 7,2 C 3,3 C 83 % 1019,8 hPa 0,0 l/m 0 min 0 min 0 W/m 22,5 km/h (4 Bft) 57,78 %
01.02.2023 18:20 7,7 C 7,2 C 3,3 C 83 % 1019,8 hPa 0,0 l/m 0 min 0 min 0 W/m 19,3 km/h (3 Bft) 74,47 %
01.02.2023 18:22 7,7 C 7,2 C 3,3 C 83 % 1019,8 hPa 0,0 l/m 0 min 0 min 0 W/m 32,2 km/h (5 Bft) 78,72 %
01.02.2023 18:24 7,7 C 7,2 C 3,3 C 83 % 1019,8 hPa 0,0 l/m 0 min 0 min 0 W/m 22,5 km/h (4 Bft) 85,11 %
01.02.2023 18:26 7,7 C 7,2 C 3,3 C 83 % 1019,8 hPa 0,0 l/m 0 min 0 min 0 W/m 25,7 km/h (4 Bft) 68,09 %
01.02.2023 18:28 7,7 C 7,2 C 3,3 C 83 % 1019,7 hPa 0,0 l/m 0 min 0 min 0 W/m 32,2 km/h (5 Bft) 76,60 %
01.02.2023 18:30 7,7 C 7,2 C 3,3 C 83 % 1019,8 hPa 0,0 l/m 0 min 0 min 0 W/m 19,3 km/h (3 Bft) 80,85 %
01.02.2023 18:32 7,7 C 6,7 C 3,3 C 83 % 1019,9 hPa 0,0 l/m 0 min 0 min 0 W/m 19,3 km/h (3 Bft) 80,43 %
01.02.2023 18:34 7,6 C 6,7 C 3,3 C 83 % 1019,9 hPa 0,0 l/m 0 min 0 min 0 W/m 19,3 km/h (3 Bft) 74,47 %
01.02.2023 18:36 7,6 C 6,7 C 3,3 C 83 % 1020,0 hPa 0,0 l/m 0 min 0 min 0 W/m 16,1 km/h (3 Bft) 74,47 %
01.02.2023 18:38 7,6 C 6,7 C 3,3 C 83 % 1019,9 hPa 0,0 l/m 0 min 0 min 0 W/m 19,3 km/h (3 Bft) 82,98 %
01.02.2023 18:40 7,6 C 6,7 C 3,3 C 83 % 1019,9 hPa 0,0 l/m 0 min 0 min 0 W/m 22,5 km/h (4 Bft) 74,47 %
01.02.2023 18:42 7,6 C 7,2 C 3,3 C 83 % 1019,9 hPa 0,0 l/m 0 min 0 min 0 W/m 25,7 km/h (4 Bft) 80,85 %
01.02.2023 18:44 7,7 C 7,2 C 3,3 C 83 % 1019,9 hPa 0,0 l/m 0 min 0 min 0 W/m 22,5 km/h (4 Bft) 76,09 %
01.02.2023 18:46 7,6 C 6,7 C 3,3 C 83 % 1019,9 hPa 0,0 l/m 0 min 0 min 0 W/m 19,3 km/h (3 Bft) 70,21 %
01.02.2023 18:48 7,6 C 6,7 C 3,3 C 83 % 1019,9 hPa 0,0 l/m 0 min 0 min 0 W/m 16,1 km/h (3 Bft) 78,72 %
01.02.2023 18:50 7,6 C 6,7 C 3,3 C 83 % 1019,9 hPa 0,0 l/m 0 min 0 min 0 W/m 16,1 km/h (3 Bft) 72,34 %
01.02.2023 18:52 7,6 C 6,7 C 3,3 C 83 % 1019,9 hPa 0,0 l/m 0 min 0 min 0 W/m 19,3 km/h (3 Bft) 76,60 %
01.02.2023 18:54 7,6 C 7,2 C 3,3 C 83 % 1019,9 hPa 0,0 l/m 0 min 0 min 0 W/m 19,3 km/h (3 Bft) 82,98 %
01.02.2023 18:56 7,6 C 7,2 C 3,3 C 83 % 1019,8 hPa 0,0 l/m 0 min 0 min 0 W/m 35,4 km/h (5 Bft) 76,60 %
01.02.2023 18:58 7,7 C 7,2 C 3,3 C 83 % 1019,8 hPa 0,0 l/m 0 min 0 min 0 W/m 22,5 km/h (4 Bft) 71,74 %
01.02.2023 19:00 7,7 C 7,2 C 3,3 C 83 % 1019,8 hPa 0,0 l/m 0 min 0 min 0 W/m 25,7 km/h (4 Bft) 94,74 %
01.02.2023 19:02 7,7 C 7,2 C 3,3 C 83 % 1019,9 hPa 0,0 l/m 0 min 0 min 0 W/m 19,3 km/h (3 Bft) 83,67 %
01.02.2023 19:04 7,7 C 7,2 C 3,3 C 83 % 1019,9 hPa 0,0 l/m 0 min 0 min 0 W/m 25,7 km/h (4 Bft) 85,11 %
01.02.2023 19:06 7,7 C 7,2 C 3,3 C 83 % 1020,0 hPa 0,0 l/m 0 min 0 min 0 W/m 25,7 km/h (4 Bft) 80,43 %
01.02.2023 19:08 7,7 C 7,2 C 3,3 C 83 % 1019,9 hPa 0,0 l/m 0 min 0 min 0 W/m 25,7 km/h (4 Bft) 82,98 %
01.02.2023 19:10 7,7 C 7,2 C 3,3 C 83 % 1019,9 hPa 0,0 l/m 0 min 0 min 0 W/m 25,7 km/h (4 Bft) 68,52 %
01.02.2023 19:12 7,7 C 7,2 C 3,3 C 83 % 1019,9 hPa 0,0 l/m 0 min 0 min 0 W/m 35,4 km/h (5 Bft) 69,57 %
01.02.2023 19:14 7,7 C 7,2 C 3,3 C 83 % 1019,9 hPa 0,0 l/m 0 min 0 min 0 W/m 22,5 km/h (4 Bft) 91,49 %
01.02.2023 19:16 7,7 C 7,2 C 3,3 C 83 % 1019,8 hPa 0,0 l/m 0 min 0 min 0 W/m 25,7 km/h (4 Bft) 91,49 %
01.02.2023 19:18 7,7 C 7,2 C 3,3 C 83 % 1019,9 hPa 0,0 l/m 0 min 0 min 0 W/m 19,3 km/h (3 Bft) 93,62 %
01.02.2023 19:20 7,7 C 7,2 C 3,3 C 83 % 1019,9 hPa 0,0 l/m 0 min 0 min 0 W/m 12,9 km/h (3 Bft) 82,98 %
01.02.2023 19:22 7,7 C 6,7 C 3,3 C 83 % 1019,8 hPa 0,0 l/m 0 min 0 min 0 W/m 16,1 km/h (3 Bft) 87,23 %
01.02.2023 19:24 7,7 C 6,7 C 3,3 C 83 % 1019,8 hPa 0,0 l/m 0 min 0 min 0 W/m 22,5 km/h (4 Bft) 76,60 %
01.02.2023 19:26 7,6 C 6,7 C 3,3 C 83 % 1019,9 hPa 0,0 l/m 0 min 0 min 0 W/m 12,9 km/h (3 Bft) 80,43 %
01.02.2023 19:28 7,6 C 6,7 C 3,3 C 83 % 1019,8 hPa 0,0 l/m 0 min 0 min 0 W/m 22,5 km/h (4 Bft) 65,96 %
01.02.2023 19:30 7,6 C 6,7 C 3,3 C 83 % 1020,0 hPa 0,0 l/m 0 min 0 min 0 W/m 22,5 km/h (4 Bft) 80,85 %
01.02.2023 19:32 7,6 C 6,7 C 3,3 C 83 % 1020,0 hPa 0,0 l/m 0 min 0 min 0 W/m 25,7 km/h (4 Bft) 85,11 %
01.02.2023 19:34 7,6 C 6,7 C 3,3 C 83 % 1020,0 hPa 0,0 l/m 0 min 0 min 0 W/m 19,3 km/h (3 Bft) 82,98 %
01.02.2023 19:36 7,6 C 6,7 C 3,3 C 83 % 1020,0 hPa 0,0 l/m 0 min 0 min 0 W/m 19,3 km/h (3 Bft) 93,62 %
01.02.2023 19:38 7,6 C 6,7 C 3,3 C 83 % 1020,0 hPa 0,0 l/m 0 min 0 min 0 W/m 25,7 km/h (4 Bft) 95,65 %
01.02.2023 19:40 7,6 C 6,7 C 3,3 C 83 % 1020,0 hPa 0,0 l/m 0 min 0 min 0 W/m 22,5 km/h (4 Bft) 80,85 %
01.02.2023 19:42 7,6 C 6,7 C 3,3 C 83 % 1019,9 hPa 0,0 l/m 0 min 0 min 0 W/m 19,3 km/h (3 Bft) 82,98 %
01.02.2023 19:44 7,6 C 6,7 C 3,3 C 83 % 1019,9 hPa 0,0 l/m 0 min 0 min 0 W/m 22,5 km/h (4 Bft) 93,62 %
01.02.2023 19:46 7,6 C 6,7 C 3,3 C 83 % 1019,9 hPa 0,0 l/m 0 min 0 min 0 W/m 19,3 km/h (3 Bft) 91,49 %
01.02.2023 19:48 7,6 C 6,7 C 3,3 C 84 % 1020,0 hPa 0,0 l/m 0 min 0 min 0 W/m 22,5 km/h (4 Bft) 89,36 %
01.02.2023 19:50 7,6 C 6,7 C 3,3 C 84 % 1020,0 hPa 0,0 l/m 0 min 0 min 0 W/m 22,5 km/h (4 Bft) 82,98 %
01.02.2023 19:52 7,6 C 6,7 C 3,3 C 84 % 1020,0 hPa 0,0 l/m 0 min 0 min 0 W/m 22,5 km/h (4 Bft) 84,78 %
01.02.2023 19:54 7,6 C 6,7 C 3,3 C 84 % 1020,0 hPa 0,0 l/m 0 min 0 min 0 W/m 19,3 km/h (3 Bft) 87,23 %
01.02.2023 19:56 7,6 C 6,7 C 3,3 C 84 % 1020,0 hPa 0,0 l/m 0 min 0 min 0 W/m 22,5 km/h (4 Bft) 82,98 %
01.02.2023 19:58 7,6 C 6,7 C 3,3 C 84 % 1020,0 hPa 0,0 l/m 0 min 0 min 0 W/m 19,3 km/h (3 Bft) 91,49 %
01.02.2023 20:00 7,5 C 6,7 C 3,3 C 84 % 1020,1 hPa 0,0 l/m 0 min 0 min 0 W/m 16,1 km/h (3 Bft) 68,75 %
01.02.2023 20:02 7,5 C 6,7 C 3,3 C 84 % 1020,1 hPa 0,0 l/m 0 min 0 min 0 W/m 25,7 km/h (4 Bft) 48,94 %
01.02.2023 20:04 7,5 C 6,7 C 3,3 C 84 % 1020,1 hPa 0,0 l/m 0 min 0 min 0 W/m 16,1 km/h (3 Bft) 65,22 %
01.02.2023 20:06 7,5 C 6,7 C 3,3 C 84 % 1020,1 hPa 0,0 l/m 0 min 0 min 0 W/m 19,3 km/h (3 Bft) 63,83 %
01.02.2023 20:08 7,5 C 6,7 C 3,3 C 84 % 1020,1 hPa 0,0 l/m 0 min 0 min 0 W/m 16,1 km/h (3 Bft) 55,32 %
01.02.2023 20:10 7,5 C 6,7 C 3,3 C 84 % 1019,9 hPa 0,0 l/m 0 min 0 min 0 W/m 19,3 km/h (3 Bft) 51,06 %
01.02.2023 20:12 7,6 C 6,7 C 3,3 C 84 % 1020,0 hPa 0,0 l/m 0 min 0 min 0 W/m 25,7 km/h (4 Bft) 63,83 %
01.02.2023 20:14 7,6 C 6,7 C 3,3 C 84 % 1020,0 hPa 0,0 l/m 0 min 0 min 0 W/m 16,1 km/h (3 Bft) 80,85 %
01.02.2023 20:16 7,6 C 7,2 C 3,3 C 84 % 1020,0 hPa 0,0 l/m 0 min 0 min 0 W/m 25,7 km/h (4 Bft) 76,60 %
01.02.2023 20:18 7,6 C 6,7 C 3,3 C 84 % 1020,0 hPa 0,0 l/m 0 min 0 min 0 W/m 22,5 km/h (4 Bft) 76,09 %
01.02.2023 20:20 7,6 C 6,7 C 3,3 C 84 % 1020,1 hPa 0,0 l/m 0 min 0 min 0 W/m 22,5 km/h (4 Bft) 87,23 %
01.02.2023 20:22 7,6 C 6,7 C 3,3 C 84 % 1020,0 hPa 0,0 l/m 0 min 0 min 0 W/m 12,9 km/h (3 Bft) 95,74 %
01.02.2023 20:24 7,6 C 6,7 C 3,3 C 84 % 1020,0 hPa 0,0 l/m 0 min 0 min 0 W/m 19,3 km/h (3 Bft) 89,36 %
01.02.2023 20:26 7,6 C 6,7 C 3,3 C 84 % 1019,9 hPa 0,0 l/m 0 min 0 min 0 W/m 22,5 km/h (4 Bft) 91,49 %
01.02.2023 20:28 7,6 C 6,7 C 3,3 C 84 % 1020,0 hPa 0,0 l/m 0 min 0 min 0 W/m 16,1 km/h (3 Bft) 87,23 %
01.02.2023 20:30 7,6 C 6,7 C 3,3 C 84 % 1020,0 hPa 0,0 l/m 0 min 0 min 0 W/m 19,3 km/h (3 Bft) 95,74 %
01.02.2023 20:32 7,6 C 6,7 C 3,3 C 84 % 1020,0 hPa 0,0 l/m 0 min 0 min 0 W/m 29,0 km/h (5 Bft) 97,83 %
01.02.2023 20:34 7,6 C 6,7 C 3,3 C 84 % 1020,0 hPa 0,0 l/m 0 min 0 min 0 W/m 19,3 km/h (3 Bft) 89,36 %
01.02.2023 20:36 7,6 C 7,2 C 3,3 C 84 % 1020,0 hPa 0,0 l/m 0 min 0 min 0 W/m 19,3 km/h (3 Bft) 95,74 %
01.02.2023 20:38 7,6 C 6,7 C 3,3 C 84 % 1019,9 hPa 0,0 l/m 0 min 0 min 0 W/m 19,3 km/h (3 Bft) 93,62 %
01.02.2023 20:40 7,6 C 6,7 C 3,3 C 84 % 1020,0 hPa 0,0 l/m 0 min 0 min 0 W/m 16,1 km/h (3 Bft) 91,49 %
01.02.2023 20:42 7,6 C 7,2 C 3,3 C 84 % 1019,9 hPa 0,0 l/m 0 min 0 min 0 W/m 16,1 km/h (3 Bft) 89,36 %
01.02.2023 20:44 7,6 C 6,7 C 3,3 C 84 % 1019,9 hPa 0,0 l/m 0 min 0 min 0 W/m 16,1 km/h (3 Bft) 97,83 %
01.02.2023 20:46 7,6 C 7,2 C 3,3 C 84 % 1020,0 hPa 0,0 l/m 0 min 0 min 0 W/m 16,1 km/h (3 Bft) 89,36 %
01.02.2023 20:48 7,7 C 7,2 C 3,3 C 84 % 1020,0 hPa 0,0 l/m 0 min 0 min 0 W/m 19,3 km/h (3 Bft) 91,49 %
01.02.2023 20:50 7,7 C 7,2 C 3,3 C 84 % 1020,0 hPa 0,0 l/m 0 min 0 min 0 W/m 16,1 km/h (3 Bft) 95,74 %
01.02.2023 20:52 7,8 C 7,2 C 3,9 C 84 % 1020,0 hPa 0,0 l/m 0 min 0 min 0 W/m 22,5 km/h (4 Bft) 97,87 %
01.02.2023 20:54 7,8 C 7,2 C 3,9 C 84 % 1020,0 hPa 0,0 l/m 0 min 0 min 0 W/m 12,9 km/h (3 Bft) 93,62 %
01.02.2023 20:56 7,8 C 7,2 C 3,9 C 84 % 1019,9 hPa 0,0 l/m 0 min 0 min 0 W/m 29,0 km/h (5 Bft) 93,62 %
01.02.2023 20:58 7,8 C 7,2 C 3,9 C 84 % 1019,9 hPa 0,0 l/m 0 min 0 min 0 W/m 16,1 km/h (3 Bft) 95,65 %
01.02.2023 21:00 7,8 C 7,2 C 3,9 C 84 % 1019,9 hPa 0,0 l/m 0 min 0 min 0 W/m 25,7 km/h (4 Bft) 93,62 %
01.02.2023 21:02 7,8 C 7,2 C 3,9 C 84 % 1019,9 hPa 0,0 l/m 0 min 0 min 0 W/m 29,0 km/h (5 Bft) 95,74 %
01.02.2023 21:04 7,9 C 7,2 C 3,9 C 84 % 1019,9 hPa 0,0 l/m 0 min 0 min 0 W/m 16,1 km/h (3 Bft) 97,87 %
01.02.2023 21:05 7,9 C 7,2 C 3,9 C 84 % 1019,9 hPa 0,0 l/m 0 min 0 min 0 W/m 29,0 km/h (5 Bft) 100,00 %
01.02.2023 21:11 7,9 C 7,2 C 3,3 C 84 % 1020,0 hPa 0,0 l/m 0 min 0 min 0 W/m 16,1 km/h (3 Bft) 93,10 %
01.02.2023 21:12 7,9 C 7,2 C 3,3 C 84 % 1020,0 hPa 0,0 l/m 0 min 0 min 0 W/m 16,1 km/h (3 Bft) 95,83 %
01.02.2023 21:14 7,9 C 7,2 C 3,9 C 84 % 1020,0 hPa 0,0 l/m 0 min 0 min 0 W/m 19,3 km/h (3 Bft) 95,65 %
01.02.2023 21:16 7,9 C 7,2 C 3,9 C 84 % 1020,0 hPa 0,0 l/m 0 min 0 min 0 W/m 16,1 km/h (3 Bft) 97,87 %
01.02.2023 21:18 7,9 C 7,2 C 3,9 C 84 % 1020,0 hPa 0,0 l/m 0 min 0 min 0 W/m 29,0 km/h (5 Bft) 93,62 %
01.02.2023 21:20 7,9 C 7,2 C 3,9 C 83 % 1019,9 hPa 0,0 l/m 0 min 0 min 0 W/m 22,5 km/h (4 Bft) 97,87 %
01.02.2023 21:22 7,9 C 7,2 C 3,9 C 84 % 1020,0 hPa 0,0 l/m 0 min 0 min 0 W/m 16,1 km/h (3 Bft) 97,87 %
01.02.2023 21:24 7,9 C 7,2 C 3,9 C 84 % 1019,9 hPa 0,0 l/m 0 min 0 min 0 W/m 19,3 km/h (3 Bft) 95,74 %
01.02.2023 21:26 7,9 C 7,2 C 3,9 C 84 % 1019,9 hPa 0,0 l/m 0 min 0 min 0 W/m 19,3 km/h (3 Bft) 95,74 %
01.02.2023 21:28 7,9 C 7,2 C 3,9 C 84 % 1019,9 hPa 0,0 l/m 0 min 0 min 0 W/m 12,9 km/h (3 Bft) 97,83 %
01.02.2023 21:30 7,9 C 7,2 C 3,9 C 84 % 1020,0 hPa 0,0 l/m 0 min 0 min 0 W/m 25,7 km/h (4 Bft) 97,87 %
01.02.2023 21:32 7,9 C 7,2 C 3,9 C 84 % 1020,0 hPa 0,0 l/m 0 min 0 min 0 W/m 25,7 km/h (4 Bft) 100,00 %
01.02.2023 21:34 7,9 C 7,2 C 3,9 C 84 % 1020,0 hPa 0,0 l/m 0 min 0 min 0 W/m 29,0 km/h (5 Bft) 95,74 %
01.02.2023 21:36 7,9 C 7,2 C 3,9 C 84 % 1020,1 hPa 0,0 l/m 0 min 0 min 0 W/m 19,3 km/h (3 Bft) 93,62 %
01.02.2023 21:38 7,9 C 7,2 C 3,9 C 84 % 1020,0 hPa 0,0 l/m 0 min 0 min 0 W/m 22,5 km/h (4 Bft) 97,87 %
01.02.2023 21:40 7,9 C 7,2 C 3,9 C 84 % 1020,0 hPa 0,0 l/m 0 min 0 min 0 W/m 22,5 km/h (4 Bft) 100,00 %
01.02.2023 21:42 7,9 C 7,2 C 3,9 C 84 % 1020,0 hPa 0,0 l/m 0 min 0 min 0 W/m 19,3 km/h (3 Bft) 97,87 %
01.02.2023 21:44 7,9 C 7,2 C 3,9 C 84 % 1020,1 hPa 0,0 l/m 0 min 0 min 0 W/m 16,1 km/h (3 Bft) 100,00 %
01.02.2023 21:46 7,9 C 7,2 C 3,9 C 84 % 1020,1 hPa 0,0 l/m 0 min 0 min 0 W/m 16,1 km/h (3 Bft) 100,00 %
01.02.2023 21:48 8,0 C 7,2 C 3,9 C 84 % 1020,2 hPa 0,0 l/m 0 min 0 min 0 W/m 25,7 km/h (4 Bft) 97,87 %
01.02.2023 21:50 7,9 C 7,2 C 3,9 C 84 % 1020,3 hPa 0,0 l/m 0 min 0 min 0 W/m 22,5 km/h (4 Bft) 87,23 %
01.02.2023 21:52 7,9 C 7,2 C 3,9 C 84 % 1020,2 hPa 0,0 l/m 0 min 0 min 0 W/m 25,7 km/h (4 Bft) 69,57 %
01.02.2023 21:54 7,9 C 7,2 C 3,9 C 84 % 1020,1 hPa 0,0 l/m 0 min 0 min 0 W/m 16,1 km/h (3 Bft) 89,36 %
01.02.2023 21:56 8,0 C 7,2 C 3,9 C 84 % 1020,2 hPa 0,0 l/m 0 min 0 min 0 W/m 19,3 km/h (3 Bft) 97,87 %
01.02.2023 21:58 7,9 C 7,2 C 3,9 C 85 % 1020,2 hPa 0,0 l/m 0 min 0 min 0 W/m 16,1 km/h (3 Bft) 100,00 %
01.02.2023 22:00 7,9 C 7,2 C 3,9 C 84 % 1020,2 hPa 0,0 l/m 0 min 0 min 0 W/m 16,1 km/h (3 Bft) 100,00 %
01.02.2023 22:02 8,0 C 7,2 C 3,9 C 84 % 1020,2 hPa 0,0 l/m 0 min 0 min 0 W/m 19,3 km/h (3 Bft) 100,00 %
01.02.2023 22:04 7,9 C 7,2 C 3,9 C 85 % 1020,2 hPa 0,0 l/m 0 min 0 min 0 W/m 22,5 km/h (4 Bft) 100,00 %
01.02.2023 22:06 7,9 C 7,2 C 3,9 C 85 % 1020,2 hPa 0,0 l/m 0 min 0 min 0 W/m 19,3 km/h (3 Bft) 100,00 %
01.02.2023 22:08 7,9 C 7,2 C 3,9 C 85 % 1020,2 hPa 0,0 l/m 0 min 0 min 0 W/m 32,2 km/h (5 Bft) 97,83 %
01.02.2023 22:10 7,9 C 7,2 C 3,9 C 85 % 1020,2 hPa 0,0 l/m 0 min 0 min 0 W/m 16,1 km/h (3 Bft) 97,87 %
01.02.2023 22:12 7,9 C 7,2 C 3,9 C 85 % 1020,3 hPa 0,0 l/m 0 min 0 min 0 W/m 22,5 km/h (4 Bft) 97,87 %
01.02.2023 22:14 7,9 C 7,2 C 3,9 C 85 % 1020,3 hPa 0,0 l/m 0 min 0 min 0 W/m 16,1 km/h (3 Bft) 97,87 %
01.02.2023 22:16 7,9 C 7,2 C 3,9 C 85 % 1020,3 hPa 0,0 l/m 0 min 0 min 0 W/m 19,3 km/h (3 Bft) 93,62 %
01.02.2023 22:18 7,9 C 7,2 C 3,9 C 85 % 1020,3 hPa 0,0 l/m 0 min 0 min 0 W/m 12,9 km/h (3 Bft) 82,98 %
01.02.2023 22:20 7,9 C 7,2 C 3,9 C 85 % 1020,4 hPa 0,0 l/m 0 min 0 min 0 W/m 19,3 km/h (3 Bft) 91,30 %
01.02.2023 22:22 7,9 C 7,2 C 3,9 C 85 % 1020,4 hPa 0,0 l/m 0 min 0 min 0 W/m 19,3 km/h (3 Bft) 100,00 %
01.02.2023 22:24 7,9 C 7,2 C 3,9 C 85 % 1020,4 hPa 0,0 l/m 0 min 0 min 0 W/m 19,3 km/h (3 Bft) 100,00 %
01.02.2023 22:26 7,9 C 7,2 C 3,9 C 86 % 1020,4 hPa 0,0 l/m 0 min 0 min 0 W/m 16,1 km/h (3 Bft) 100,00 %
01.02.2023 22:28 7,9 C 7,2 C 3,3 C 86 % 1020,3 hPa 0,0 l/m 0 min 0 min 0 W/m 19,3 km/h (3 Bft) 97,87 %
01.02.2023 22:30 7,8 C 7,2 C 3,9 C 86 % 1020,4 hPa 0,0 l/m 0 min 0 min 0 W/m 19,3 km/h (3 Bft) 100,00 %
01.02.2023 22:32 7,8 C 7,2 C 3,9 C 86 % 1020,5 hPa 0,0 l/m 0 min 0 min 0 W/m 19,3 km/h (3 Bft) 100,00 %
01.02.2023 22:34 7,8 C 7,2 C 3,9 C 86 % 1020,4 hPa 0,0 l/m 0 min 0 min 0 W/m 22,5 km/h (4 Bft) 95,65 %
01.02.2023 22:36 7,8 C 7,2 C 3,9 C 86 % 1020,4 hPa 0,0 l/m 0 min 0 min 0 W/m 19,3 km/h (3 Bft) 97,87 %
01.02.2023 22:38 7,8 C 7,2 C 3,3 C 86 % 1020,4 hPa 0,0 l/m 0 min 0 min 0 W/m 19,3 km/h (3 Bft) 93,62 %
01.02.2023 22:40 7,8 C 7,2 C 3,3 C 86 % 1020,4 hPa 0,0 l/m 0 min 0 min 0 W/m 19,3 km/h (3 Bft) 97,87 %
01.02.2023 22:42 7,8 C 7,2 C 3,9 C 86 % 1020,5 hPa 0,0 l/m 0 min 0 min 0 W/m 22,5 km/h (4 Bft) 93,62 %
01.02.2023 22:44 7,8 C 7,2 C 3,9 C 86 % 1020,5 hPa 0,0 l/m 0 min 0 min 0 W/m 16,1 km/h (3 Bft) 93,62 %
01.02.2023 22:46 7,8 C 7,2 C 3,9 C 86 % 1020,7 hPa 0,0 l/m 0 min 0 min 0 W/m 22,5 km/h (4 Bft) 95,65 %
01.02.2023 22:48 7,8 C 7,2 C 3,9 C 86 % 1020,5 hPa 0,0 l/m 0 min 0 min 0 W/m 16,1 km/h (3 Bft) 95,74 %
01.02.2023 22:50 7,8 C 7,2 C 3,3 C 86 % 1020,5 hPa 0,0 l/m 0 min 0 min 0 W/m 25,7 km/h (4 Bft) 95,74 %
01.02.2023 22:52 7,8 C 7,2 C 3,3 C 86 % 1020,5 hPa 0,0 l/m 0 min 0 min 0 W/m 16,1 km/h (3 Bft) 95,74 %
01.02.2023 22:54 7,8 C 7,2 C 3,3 C 86 % 1020,6 hPa 0,0 l/m 0 min 0 min 0 W/m 19,3 km/h (3 Bft) 95,74 %
01.02.2023 22:56 7,8 C 7,2 C 3,3 C 86 % 1020,5 hPa 0,0 l/m 0 min 0 min 0 W/m 16,1 km/h (3 Bft) 93,62 %
01.02.2023 22:58 7,8 C 7,2 C 3,3 C 87 % 1020,6 hPa 0,0 l/m 0 min 0 min 0 W/m 19,3 km/h (3 Bft) 93,62 %
01.02.2023 23:00 7,8 C 7,2 C 3,3 C 87 % 1020,5 hPa 0,0 l/m 0 min 0 min 0 W/m 19,3 km/h (3 Bft) 93,48 %
01.02.2023 23:02 7,8 C 7,2 C 3,3 C 87 % 1020,7 hPa 0,0 l/m 0 min 0 min 0 W/m 22,5 km/h (4 Bft) 93,62 %
01.02.2023 23:04 7,7 C 7,2 C 3,3 C 87 % 1020,6 hPa 0,0 l/m 0 min 0 min 0 W/m 16,1 km/h (3 Bft) 93,62 %
01.02.2023 23:06 7,8 C 7,2 C 3,3 C 87 % 1020,6 hPa 0,0 l/m 0 min 0 min 0 W/m 16,1 km/h (3 Bft) 91,49 %
01.02.2023 23:08 7,8 C 7,2 C 3,3 C 87 % 1020,7 hPa 0,0 l/m 0 min 0 min 0 W/m 19,3 km/h (3 Bft) 93,62 %
01.02.2023 23:10 7,7 C 7,2 C 3,3 C 87 % 1020,7 hPa 0,0 l/m 0 min 0 min 0 W/m 16,1 km/h (3 Bft) 93,62 %
01.02.2023 23:12 7,7 C 7,2 C 3,3 C 87 % 1020,6 hPa 0,0 l/m 0 min 0 min 0 W/m 16,1 km/h (3 Bft) 93,48 %
01.02.2023 23:14 7,7 C 7,2 C 3,3 C 87 % 1020,7 hPa 0,0 l/m 0 min 0 min 0 W/m 19,3 km/h (3 Bft) 93,62 %
01.02.2023 23:16 7,7 C 7,2 C 3,3 C 87 % 1020,6 hPa 0,0 l/m 0 min 0 min 0 W/m 19,3 km/h (3 Bft) 93,62 %
01.02.2023 23:18 7,7 C 7,2 C 3,3 C 87 % 1020,6 hPa 0,0 l/m 0 min 0 min 0 W/m 19,3 km/h (3 Bft) 93,62 %
01.02.2023 23:20 7,7 C 7,2 C 3,3 C 87 % 1020,7 hPa 0,0 l/m 0 min 0 min 0 W/m 12,9 km/h (3 Bft) 93,62 %
01.02.2023 23:22 7,7 C 7,2 C 3,3 C 87 % 1020,8 hPa 0,0 l/m 0 min 0 min 0 W/m 19,3 km/h (3 Bft) 89,36 %
01.02.2023 23:24 7,7 C 7,2 C 3,3 C 87 % 1020,7 hPa 0,0 l/m 0 min 0 min 0 W/m 19,3 km/h (3 Bft) 95,74 %
01.02.2023 23:26 7,7 C 7,2 C 3,3 C 87 % 1020,8 hPa 0,0 l/m 0 min 0 min 0 W/m 22,5 km/h (4 Bft) 95,65 %
01.02.2023 23:28 7,7 C 7,2 C 3,3 C 87 % 1020,7 hPa 0,0 l/m 0 min 0 min 0 W/m 19,3 km/h (3 Bft) 95,74 %
01.02.2023 23:30 7,7 C 7,2 C 3,3 C 87 % 1020,7 hPa 0,0 l/m 0 min 0 min 0 W/m 19,3 km/h (3 Bft) 95,74 %
01.02.2023 23:32 7,7 C 7,2 C 3,3 C 87 % 1020,8 hPa 0,0 l/m 0 min 0 min 0 W/m 16,1 km/h (3 Bft) 97,87 %
01.02.2023 23:34 7,7 C 7,2 C 3,3 C 87 % 1020,9 hPa 0,0 l/m 0 min 0 min 0 W/m 12,9 km/h (3 Bft) 97,87 %
01.02.2023 23:36 7,7 C 7,2 C 3,3 C 87 % 1020,9 hPa 0,0 l/m 0 min 0 min 0 W/m 19,3 km/h (3 Bft) 97,87 %
01.02.2023 23:38 7,7 C 7,2 C 3,3 C 87 % 1021,0 hPa 0,0 l/m 0 min 0 min 0 W/m 19,3 km/h (3 Bft) 91,30 %
01.02.2023 23:40 7,7 C 7,2 C 3,3 C 87 % 1020,9 hPa 0,0 l/m 0 min 0 min 0 W/m 19,3 km/h (3 Bft) 97,87 %
01.02.2023 23:42 7,7 C 7,2 C 3,3 C 87 % 1021,0 hPa 0,0 l/m 0 min 0 min 0 W/m 25,7 km/h (4 Bft) 100,00 %
01.02.2023 23:44 7,7 C 7,2 C 3,3 C 87 % 1020,9 hPa 0,0 l/m 0 min 0 min 0 W/m 16,1 km/h (3 Bft) 100,00 %
01.02.2023 23:46 7,7 C 6,7 C 3,3 C 87 % 1021,0 hPa 0,0 l/m 0 min 0 min 0 W/m 12,9 km/h (3 Bft) 100,00 %
01.02.2023 23:48 7,7 C 6,7 C 3,3 C 87 % 1021,1 hPa 0,0 l/m 0 min 0 min 0 W/m 22,5 km/h (4 Bft) 97,87 %
01.02.2023 23:50 7,7 C 6,7 C 3,3 C 88 % 1021,0 hPa 0,0 l/m 0 min 0 min 0 W/m 16,1 km/h (3 Bft) 100,00 %
01.02.2023 23:52 7,6 C 6,7 C 3,3 C 88 % 1021,1 hPa 0,0 l/m 0 min 0 min 0 W/m 12,9 km/h (3 Bft) 100,00 %
01.02.2023 23:54 7,6 C 6,7 C 3,3 C 88 % 1021,0 hPa 0,0 l/m 0 min 0 min 0 W/m 12,9 km/h (3 Bft) 100,00 %
01.02.2023 23:56 7,6 C 6,7 C 3,3 C 88 % 1021,0 hPa 0,0 l/m 0 min 0 min 0 W/m 19,3 km/h (3 Bft) 100,00 %
01.02.2023 23:58 7,6 C 6,7 C 3,3 C 88 % 1021,0 hPa 0,0 l/m 0 min 0 min 0 W/m 19,3 km/h (3 Bft) 100,00 %
_ Min-Zeit 03:56 03:26 03:36 14:48 14:46 - - - - 00:02 11:36
Minimum _ 4,7 C 3,9 C 1,1 C 80 % 1018,6 hPa - - - - 6,4 km/h (2 Bft) 23,08 %
_ Max-Zeit 15:52 11:18 14:54 00:00 00:00 00:00 10:38 12:54 11:22 08:50 00:24
Maximum _ 8,0 C 10,0 C 3,9 C 94 % 1021,1 hPa 0,0 l/m 2 min 2 min 403 W/m 54,7 km/h
S-SO (7 Bft)
100,00 %
Durchschnitt _ 6,5 C 6,0 C 2,7 C 86 % 1019,9 hPa #0,0 l/m #24 min. #4 min. 61 W/m 20,1 km/h (4 Bft) 92,34 %
© 2023 W. Hausmann